| time (UTC) | temp C | wind direction | speed KPH | gust KPH | rain 1hr cm | rain 24hr cm | rain mn cm | humidity % | barometer mb |
| 20260508213958 | 23 | 290 | 1.6 | 11.3 | 0.00 | 0.00 | 0.00 | 23 | 1013.5 |
| 20260508213858 | 23 | 254 | 3.2 | 11.3 | 0.00 | 0.00 | 0.00 | 22 | 1013.5 |
| 20260508213658 | 23 | 211 | 1.6 | 11.3 | 0.00 | 0.00 | 0.00 | 19 | 1013.5 |
| 20260508213558 | 23 | 215 | 8.0 | 9.7 | 0.00 | 0.00 | 0.00 | 20 | 1013.5 |
| 20260508213458 | 23 | 232 | 4.8 | 9.7 | 0.00 | 0.00 | 0.00 | 20 | 1013.5 |
| 20260508213258 | 23 | 211 | 8.0 | 9.7 | 0.00 | 0.00 | 0.00 | 20 | 1013.5 |
| 20260508213157 | 23 | 200 | 4.8 | 12.9 | 0.00 | 0.00 | 0.00 | 20 | 1013.5 |
| 20260508213059 | 23 | 243 | 8.0 | 17.7 | 0.00 | 0.00 | 0.00 | 20 | 1013.5 |
| 20260508212959 | 23 | 236 | 6.4 | 17.7 | 0.00 | 0.00 | 0.00 | 20 | 1013.5 |
| 20260508212859 | 23 | 205 | 6.4 | 17.7 | 0.00 | 0.00 | 0.00 | 20 | 1013.6 |
| 20260508212758 | 23 | 247 | 6.4 | 17.7 | 0.00 | 0.00 | 0.00 | 18 | 1013.5 |
| 20260508212658 | 23 | 219 | 3.2 | 17.7 | 0.00 | 0.00 | 0.00 | 20 | 1013.5 |
| 20260508212559 | 23 | 285 | 3.2 | 17.7 | 0.00 | 0.00 | 0.00 | 18 | 1013.6 |
| 20260508212459 | 23 | 222 | 3.2 | 17.7 | 0.00 | 0.00 | 0.00 | 20 | 1013.5 |
| 20260508212258 | 23 | 260 | 9.7 | 17.7 | 0.00 | 0.00 | 0.00 | 20 | 1013.6 |
| 20260508212158 | 23 | 201 | 11.3 | 17.7 | 0.00 | 0.00 | 0.00 | 20 | 1013.6 |
| 20260508212058 | 23 | 185 | 3.2 | 11.3 | 0.00 | 0.00 | 0.00 | 19 | 1013.6 |
| 20260508211958 | 23 | 263 | 3.2 | 11.3 | 0.00 | 0.00 | 0.00 | 20 | 1013.6 |
| 20260508211757 | 23 | 258 | 3.2 | 17.7 | 0.00 | 0.00 | 0.00 | 20 | 1013.6 |
| 20260508211659 | 23 | 293 | 4.8 | 17.7 | 0.00 | 0.00 | 0.00 | 20 | 1013.7 |
| 20260508211558 | 23 | 204 | 3.2 | 17.7 | 0.00 | 0.00 | 0.00 | 20 | 1013.7 |
| 20260508211458 | 23 | 223 | 3.2 | 17.7 | 0.00 | 0.00 | 0.00 | 20 | 1013.7 |
| 20260508211358 | 23 | 223 | 3.2 | 17.7 | 0.00 | 0.00 | 0.00 | 19 | 1013.7 |
| 20260508211258 | 23 | 169 | 4.8 | 17.7 | 0.00 | 0.00 | 0.00 | 19 | 1013.7 |
| 20260508211158 | 23 | 199 | 8.0 | 17.7 | 0.00 | 0.00 | 0.00 | 20 | 1013.7 |
| 20260508211057 | 23 | 275 | 12.9 | 17.7 | 0.00 | 0.00 | 0.00 | 19 | 1013.7 |
| 20260508210858 | 23 | 230 | 6.4 | 16.1 | 0.00 | 0.00 | 0.00 | 19 | 1013.7 |
| 20260508210758 | 24 | 257 | 4.8 | 16.1 | 0.00 | 0.00 | 0.00 | 19 | 1013.7 |
| 20260508210659 | 24 | 245 | 8.0 | 12.9 | 0.00 | 0.00 | 0.00 | 20 | 1013.7 |
| 20260508210558 | 23 | 240 | 8.0 | 12.9 | 0.00 | 0.00 | 0.00 | 20 | 1013.7 |
| 20260508210458 | 23 | 211 | 3.2 | 12.9 | 0.00 | 0.00 | 0.00 | 19 | 1013.7 |
| 20260508210359 | 23 | 273 | 6.4 | 12.9 | 0.00 | 0.00 | 0.00 | 19 | 1013.7 |
| 20260508210258 | 23 | 254 | 0.0 | 12.9 | 0.00 | 0.00 | 0.00 | 20 | 1013.7 |
| 20260508210159 | 23 | 229 | 4.8 | 12.9 | 0.00 | 0.00 | 0.00 | 21 | 1013.7 |
| 20260508210058 | 23 | 257 | 1.6 | 12.9 | 0.00 | 0.00 | 0.00 | 18 | 1013.7 |
| 20260508210003 | 23 | 337 | 1.6 | 12.9 | 0.00 | 0.00 | 0.00 | 18 | 1013.7 |
| 20260508205857 | 23 | 313 | 1.6 | 12.9 | 0.00 | 0.00 | 0.00 | 19 | 1013.7 |
| 20260508205759 | 23 | 284 | 4.8 | 6.4 | 0.00 | 0.00 | 0.00 | 18 | 1013.7 |
| 20260508205558 | 24 | 277 | 3.2 | 4.8 | 0.00 | 0.00 | 0.00 | 19 | 1013.7 |
| 20260508205458 | 23 | 22 | 0.0 | 4.8 | 0.00 | 0.00 | 0.00 | 19 | 1013.7 |
| 20260508205259 | 23 | 327 | 1.6 | 4.8 | 0.00 | 0.00 | 0.00 | 20 | 1013.7 |
| 20260508205158 | 23 | 333 | 1.6 | 4.8 | 0.00 | 0.00 | 0.00 | 20 | 1013.8 |
| 20260508204958 | 23 | 14 | 3.2 | 6.4 | 0.00 | 0.00 | 0.00 | 23 | 1013.8 |
| 20260508204859 | 23 | 319 | 4.8 | 6.4 | 0.00 | 0.00 | 0.00 | 21 | 1013.8 |
| 20260508204758 | 23 | 309 | 1.6 | 8.0 | 0.00 | 0.00 | 0.00 | 19 | 1013.8 |
| 20260508204658 | 23 | 343 | 1.6 | 12.9 | 0.00 | 0.00 | 0.00 | 21 | 1013.9 |
| 20260508204558 | 23 | 339 | 3.2 | 12.9 | 0.00 | 0.00 | 0.00 | 21 | 1013.9 |
| 20260508204459 | 23 | 319 | 1.6 | 12.9 | 0.00 | 0.00 | 0.00 | 22 | 1013.9 |
| 20260508204359 | 23 | 325 | 1.6 | 12.9 | 0.00 | 0.00 | 0.00 | 24 | 1013.9 |
| 20260508204257 | 23 | 355 | 4.8 | 12.9 | 0.00 | 0.00 | 0.00 | 20 | 1013.9 |
| 20260508204058 | 23 | 306 | 3.2 | 12.9 | 0.00 | 0.00 | 0.00 | 21 | 1013.9 |
| 20260508203958 | 23 | 327 | 3.2 | 12.9 | 0.00 | 0.00 | 0.00 | 22 | 1013.9 |
| 20260508203858 | 23 | 316 | 3.2 | 12.9 | 0.00 | 0.00 | 0.00 | 20 | 1013.9 |
| 20260508203757 | 23 | 332 | 4.8 | 12.9 | 0.00 | 0.00 | 0.00 | 20 | 1013.9 |
| 20260508203459 | 23 | 330 | 3.2 | 9.7 | 0.00 | 0.00 | 0.00 | 21 | 1013.9 |
| 20260508203358 | 23 | 331 | 3.2 | 9.7 | 0.00 | 0.00 | 0.00 | 21 | 1013.9 |
| 20260508203259 | 23 | 360 | 3.2 | 9.7 | 0.00 | 0.00 | 0.00 | 22 | 1013.9 |
| 20260508203159 | 23 | 349 | 3.2 | 9.7 | 0.00 | 0.00 | 0.00 | 19 | 1013.9 |
| 20260508203058 | 23 | 325 | 3.2 | 9.7 | 0.00 | 0.00 | 0.00 | 20 | 1014.0 |
| 20260508203000 | 23 | 342 | 4.8 | 6.4 | 0.00 | 0.00 | 0.00 | 18 | 1014.0 |
| 20260508202758 | 23 | 332 | 3.2 | 6.4 | 0.00 | 0.00 | 0.00 | 21 | 1014.0 |
| 20260508202658 | 23 | 329 | 3.2 | 6.4 | 0.00 | 0.00 | 0.00 | 19 | 1014.0 |
| 20260508202558 | 23 | 333 | 3.2 | 6.4 | 0.00 | 0.00 | 0.00 | 21 | 1014.0 |
| 20260508202358 | 23 | 331 | 1.6 | 11.3 | 0.00 | 0.00 | 0.00 | 18 | 1014.0 |
| 20260508202258 | 23 | 348 | 0.0 | 11.3 | 0.00 | 0.00 | 0.00 | 19 | 1014.0 |
| 20260508202058 | 23 | 329 | 1.6 | 12.9 | 0.00 | 0.00 | 0.00 | 19 | 1014.0 |
| 20260508201858 | 23 | 334 | 1.6 | 12.9 | 0.00 | 0.00 | 0.00 | 18 | 1014.0 |
| 20260508201758 | 23 | 290 | 0.0 | 12.9 | 0.00 | 0.00 | 0.00 | 17 | 1014.1 |
| 20260508201658 | 23 | 234 | 1.6 | 12.9 | 0.00 | 0.00 | 0.00 | 18 | 1014.1 |
| 20260508201500 | 23 | 226 | 8.0 | 12.9 | 0.00 | 0.00 | 0.00 | 20 | 1014.0 |
| 20260508201358 | 23 | 237 | 8.0 | 12.9 | 0.00 | 0.00 | 0.00 | 21 | 1014.0 |
| 20260508201257 | 23 | 272 | 9.7 | 12.9 | 0.00 | 0.00 | 0.00 | 21 | 1014.0 |
| 20260508201158 | 23 | 268 | 6.4 | 12.9 | 0.00 | 0.00 | 0.00 | 21 | 1014.1 |
| 20260508201058 | 23 | 255 | 1.6 | 11.3 | 0.00 | 0.00 | 0.00 | 20 | 1014.0 |
| 20260508200959 | 23 | 228 | 8.0 | 11.3 | 0.00 | 0.00 | 0.00 | 22 | 1014.0 |
| 20260508200858 | 23 | 198 | 6.4 | 11.3 | 0.00 | 0.00 | 0.00 | 20 | 1014.0 |
| 20260508200757 | 23 | 244 | 6.4 | 11.3 | 0.00 | 0.00 | 0.00 | 18 | 1014.0 |
| 20260508200659 | 23 | 246 | 4.8 | 11.3 | 0.00 | 0.00 | 0.00 | 20 | 1014.1 |
| 20260508200558 | 23 | 211 | 6.4 | 11.3 | 0.00 | 0.00 | 0.00 | 20 | 1014.0 |
| 20260508200458 | 23 | 316 | 3.2 | 11.3 | 0.00 | 0.00 | 0.00 | 21 | 1014.0 |
| 20260508200359 | 23 | 308 | 4.8 | 11.3 | 0.00 | 0.00 | 0.00 | 20 | 1014.0 |
| 20260508200258 | 23 | 320 | 4.8 | 11.3 | 0.00 | 0.00 | 0.00 | 20 | 1014.1 |
| 20260508200158 | 23 | 336 | 3.2 | 11.3 | 0.00 | 0.00 | 0.00 | 20 | 1014.0 |
| 20260508200059 | 23 | 250 | 8.0 | 11.3 | 0.00 | 0.00 | 0.00 | 20 | 1014.1 |
| 20260508195857 | 23 | 294 | 1.6 | 9.7 | 0.00 | 0.00 | 0.00 | 20 | 1014.1 |
| 20260508195757 | 23 | 338 | 1.6 | 11.3 | 0.00 | 0.00 | 0.00 | 20 | 1014.1 |
| 20260508195658 | 23 | 286 | 6.4 | 11.3 | 0.00 | 0.00 | 0.00 | 20 | 1014.0 |
| 20260508195558 | 23 | 331 | 1.6 | 11.3 | 0.00 | 0.00 | 0.00 | 21 | 1014.1 |
| 20260508195459 | 23 | 251 | 6.4 | 11.3 | 0.00 | 0.00 | 0.00 | 21 | 1014.1 |
| 20260508195358 | 23 | 327 | 3.2 | 12.9 | 0.00 | 0.00 | 0.00 | 20 | 1014.1 |
| 20260508195258 | 23 | 315 | 3.2 | 12.9 | 0.00 | 0.00 | 0.00 | 20 | 1014.1 |
| 20260508195158 | 23 | 250 | 1.6 | 12.9 | 0.00 | 0.00 | 0.00 | 24 | 1014.1 |
| 20260508195058 | 23 | 313 | 4.8 | 12.9 | 0.00 | 0.00 | 0.00 | 24 | 1014.1 |
| 20260508194958 | 23 | 252 | 3.2 | 12.9 | 0.00 | 0.00 | 0.00 | 20 | 1014.1 |
| 20260508194858 | 23 | 280 | 1.6 | 12.9 | 0.00 | 0.00 | 0.00 | 19 | 1014.1 |
| 20260508194758 | 23 | 271 | 3.2 | 12.9 | 0.00 | 0.00 | 0.00 | 20 | 1014.1 |
| 20260508194657 | 23 | 250 | 1.6 | 12.9 | 0.00 | 0.00 | 0.00 | 22 | 1014.1 |
| 20260508194558 | 23 | 298 | 8.0 | 12.9 | 0.00 | 0.00 | 0.00 | 20 | 1014.0 |
| 20260508194459 | 23 | 284 | 12.9 | 12.9 | 0.00 | 0.00 | 0.00 | 19 | 1014.1 |
| 20260508194358 | 23 | 309 | 3.2 | 12.9 | 0.00 | 0.00 | 0.00 | 20 | 1014.1 |
| 20260508194257 | 23 | 236 | 8.0 | 12.9 | 0.00 | 0.00 | 0.00 | 21 | 1014.1 |
| 20260508194158 | 23 | 299 | 3.2 | 12.9 | 0.00 | 0.00 | 0.00 | 19 | 1014.1 |
| 20260508194059 | 23 | 197 | 3.2 | 12.9 | 0.00 | 0.00 | 0.00 | 20 | 1014.1 |
| 20260508193958 | 23 | 263 | 6.4 | 12.9 | 0.00 | 0.00 | 0.00 | 20 | 1014.1 |
| 20260508193857 | 23 | 273 | 6.4 | 12.9 | 0.00 | 0.00 | 0.00 | 20 | 1014.1 |
| 20260508193758 | 23 | 208 | 9.7 | 12.9 | 0.00 | 0.00 | 0.00 | 22 | 1014.1 |
| 20260508193657 | 23 | 227 | 3.2 | 9.7 | 0.00 | 0.00 | 0.00 | 22 | 1014.1 |
| 20260508193558 | 23 | 190 | 6.4 | 9.7 | 0.00 | 0.00 | 0.00 | 21 | 1014.2 |
| 20260508193358 | 23 | 337 | 1.6 | 6.4 | 0.00 | 0.00 | 0.00 | 21 | 1014.2 |
| 20260508193258 | 23 | 344 | 3.2 | 8.0 | 0.00 | 0.00 | 0.00 | 22 | 1014.2 |
| 20260508193158 | 23 | 238 | 1.6 | 8.0 | 0.00 | 0.00 | 0.00 | 25 | 1014.2 |
| 20260508193059 | 23 | 263 | 4.8 | 9.7 | 0.00 | 0.00 | 0.00 | 21 | 1014.2 |
| 20260508192959 | 23 | 302 | 1.6 | 11.3 | 0.00 | 0.00 | 0.00 | 22 | 1014.2 |
| 20260508192858 | 23 | 336 | 3.2 | 11.3 | 0.00 | 0.00 | 0.00 | 22 | 1014.2 |
| 20260508192758 | 23 | 304 | 3.2 | 11.3 | 0.00 | 0.00 | 0.00 | 23 | 1014.2 |
| 20260508192659 | 23 | 305 | 4.8 | 19.3 | 0.00 | 0.00 | 0.00 | 22 | 1014.2 |
| 20260508192558 | 23 | 274 | 1.6 | 19.3 | 0.00 | 0.00 | 0.00 | 24 | 1014.1 |
| 20260508192458 | 23 | 311 | 4.8 | 19.3 | 0.00 | 0.00 | 0.00 | 21 | 1014.2 |
| 20260508192358 | 23 | 343 | 0.0 | 19.3 | 0.00 | 0.00 | 0.00 | 21 | 1014.2 |
| 20260508192257 | 23 | 19 | 3.2 | 19.3 | 0.00 | 0.00 | 0.00 | 22 | 1014.3 |
| 20260508192058 | 23 | 324 | 6.4 | 19.3 | 0.00 | 0.00 | 0.00 | 21 | 1014.2 |
| 20260508191958 | 23 | 205 | 8.0 | 19.3 | 0.00 | 0.00 | 0.00 | 20 | 1014.2 |
| 20260508191858 | 23 | 234 | 4.8 | 19.3 | 0.00 | 0.00 | 0.00 | 21 | 1014.3 |
| 20260508191757 | 23 | 200 | 16.1 | 16.1 | 0.00 | 0.00 | 0.00 | 20 | 1014.3 |
| 20260508191658 | 23 | 236 | 8.0 | 12.9 | 0.00 | 0.00 | 0.00 | 20 | 1014.3 |
| 20260508191558 | 23 | 233 | 6.4 | 9.7 | 0.00 | 0.00 | 0.00 | 21 | 1014.3 |
| 20260508191457 | 23 | 230 | 8.0 | 17.7 | 0.00 | 0.00 | 0.00 | 20 | 1014.3 |
| 20260508191258 | 23 | 316 | 1.6 | 17.7 | 0.00 | 0.00 | 0.00 | 21 | 1014.3 |
| 20260508191158 | 23 | 9 | 0.0 | 17.7 | 0.00 | 0.00 | 0.00 | 20 | 1014.3 |
| 20260508191057 | 23 | 29 | 3.2 | 17.7 | 0.00 | 0.00 | 0.00 | 20 | 1014.3 |
| 20260508190858 | 23 | 279 | 1.6 | 17.7 | 0.00 | 0.00 | 0.00 | 18 | 1014.3 |
| 20260508190757 | 23 | 20 | 1.6 | 17.7 | 0.00 | 0.00 | 0.00 | 25 | 1014.4 |
| 20260508190658 | 23 | 355 | 3.2 | 17.7 | 0.00 | 0.00 | 0.00 | 21 | 1014.3 |
| 20260508190557 | 23 | 207 | 14.5 | 19.3 | 0.00 | 0.00 | 0.00 | 20 | 1014.3 |
| 20260508190459 | 23 | 227 | 12.9 | 12.9 | 0.00 | 0.00 | 0.00 | 21 | 1014.3 |
| 20260508190357 | 23 | 187 | 12.9 | 12.9 | 0.00 | 0.00 | 0.00 | 22 | 1014.3 |
| 20260508190058 | 23 | 283 | 4.8 | 11.3 | 0.00 | 0.00 | 0.00 | 20 | 1014.3 |
| 20260508190002 | 23 | 258 | 3.2 | 11.3 | 0.00 | 0.00 | 0.00 | 19 | 1014.3 |
| 20260508185857 | 23 | 203 | 11.3 | 11.3 | 0.00 | 0.00 | 0.00 | 20 | 1014.2 |
| 20260508185757 | 23 | 196 | 4.8 | 11.3 | 0.00 | 0.00 | 0.00 | 20 | 1014.3 |
| 20260508185658 | 23 | 233 | 8.0 | 11.3 | 0.00 | 0.00 | 0.00 | 21 | 1014.3 |
| 20260508185558 | 23 | 234 | 9.7 | 11.3 | 0.00 | 0.00 | 0.00 | 19 | 1014.4 |
| 20260508185458 | 23 | 170 | 8.0 | 11.3 | 0.00 | 0.00 | 0.00 | 22 | 1014.4 |
| 20260508185357 | 23 | 249 | 6.4 | 11.3 | 0.00 | 0.00 | 0.00 | 21 | 1014.3 |
| 20260508185257 | 23 | 213 | 4.8 | 11.3 | 0.00 | 0.00 | 0.00 | 20 | 1014.3 |
| 20260508185100 | 22 | 243 | 6.4 | 8.0 | 0.00 | 0.00 | 0.00 | 24 | 1014.4 |
| 20260508184959 | 22 | 200 | 1.6 | 8.0 | 0.00 | 0.00 | 0.00 | 20 | 1014.4 |
| 20260508184858 | 22 | 355 | 1.6 | 8.0 | 0.00 | 0.00 | 0.00 | 24 | 1014.4 |
| 20260508184800 | 22 | 237 | 6.4 | 8.0 | 0.00 | 0.00 | 0.00 | 24 | 1014.4 |
| 20260508184658 | 22 | 265 | 4.8 | 8.0 | 0.00 | 0.00 | 0.00 | 22 | 1014.4 |
| 20260508184557 | 22 | 332 | 1.6 | 8.0 | 0.00 | 0.00 | 0.00 | 21 | 1014.4 |
| 20260508184458 | 22 | 328 | 3.2 | 11.3 | 0.00 | 0.00 | 0.00 | 22 | 1014.5 |
| 20260508184358 | 22 | 308 | 4.8 | 11.3 | 0.00 | 0.00 | 0.00 | 22 | 1014.4 |
| 20260508184258 | 22 | 335 | 3.2 | 11.3 | 0.00 | 0.00 | 0.00 | 23 | 1014.4 |
| 20260508184157 | 22 | 323 | 3.2 | 11.3 | 0.00 | 0.00 | 0.00 | 22 | 1014.5 |
| 20260508184058 | 22 | 5 | 0.0 | 11.3 | 0.00 | 0.00 | 0.00 | 21 | 1014.5 |
| 20260508183958 | 22 | 336 | 3.2 | 12.9 | 0.00 | 0.00 | 0.00 | 25 | 1014.5 |
| 20260508183858 | 22 | 328 | 4.8 | 12.9 | 0.00 | 0.00 | 0.00 | 22 | 1014.5 |
| 20260508183757 | 22 | 330 | 1.6 | 12.9 | 0.00 | 0.00 | 0.00 | 21 | 1014.5 |
| 20260508183558 | 22 | 280 | 8.0 | 14.5 | 0.00 | 0.00 | 0.00 | 22 | 1014.5 |
| 20260508183458 | 22 | 281 | 3.2 | 14.5 | 0.00 | 0.00 | 0.00 | 22 | 1014.5 |
| 20260508183358 | 22 | 290 | 3.2 | 14.5 | 0.00 | 0.00 | 0.00 | 23 | 1014.5 |
| 20260508183157 | 22 | 271 | 3.2 | 14.5 | 0.00 | 0.00 | 0.00 | 22 | 1014.5 |
| 20260508183058 | 22 | 219 | 8.0 | 14.5 | 0.00 | 0.00 | 0.00 | 21 | 1014.6 |
| 20260508182857 | 22 | 205 | 8.0 | 14.5 | 0.00 | 0.00 | 0.00 | 24 | 1014.5 |
| 20260508182757 | 22 | 209 | 3.2 | 14.5 | 0.00 | 0.00 | 0.00 | 23 | 1014.6 |
| 20260508182658 | 22 | 192 | 6.4 | 14.5 | 0.00 | 0.00 | 0.00 | 23 | 1014.5 |
| 20260508182558 | 22 | 181 | 3.2 | 11.3 | 0.00 | 0.00 | 0.00 | 24 | 1014.5 |
| 20260508182358 | 22 | 274 | 4.8 | 11.3 | 0.00 | 0.00 | 0.00 | 24 | 1014.6 |
| 20260508182258 | 22 | 219 | 4.8 | 11.3 | 0.00 | 0.00 | 0.00 | 25 | 1014.6 |
| 20260508182157 | 22 | 331 | 1.6 | 11.3 | 0.00 | 0.00 | 0.00 | 27 | 1014.6 |
| 20260508182058 | 22 | 312 | 4.8 | 11.3 | 0.00 | 0.00 | 0.00 | 24 | 1014.6 |
| 20260508181958 | 22 | 282 | 4.8 | 9.7 | 0.00 | 0.00 | 0.00 | 25 | 1014.6 |
| 20260508181857 | 22 | 274 | 1.6 | 11.3 | 0.00 | 0.00 | 0.00 | 26 | 1014.6 |
| 20260508181758 | 22 | 328 | 3.2 | 11.3 | 0.00 | 0.00 | 0.00 | 27 | 1014.7 |
| 20260508181658 | 22 | 297 | 1.6 | 11.3 | 0.00 | 0.00 | 0.00 | 27 | 1014.6 |
| 20260508181558 | 22 | 221 | 3.2 | 11.3 | 0.00 | 0.00 | 0.00 | 24 | 1014.6 |
| 20260508181459 | 22 | 190 | 6.4 | 11.3 | 0.00 | 0.00 | 0.00 | 24 | 1014.6 |
| 20260508181358 | 22 | 231 | 1.6 | 11.3 | 0.00 | 0.00 | 0.00 | 24 | 1014.6 |
| 20260508181157 | 22 | 141 | 3.2 | 11.3 | 0.00 | 0.00 | 0.00 | 22 | 1014.7 |
| 20260508181058 | 22 | 205 | 3.2 | 11.3 | 0.00 | 0.00 | 0.00 | 25 | 1014.7 |
| 20260508180858 | 22 | 312 | 1.6 | 8.0 | 0.00 | 0.00 | 0.00 | 25 | 1014.7 |
| 20260508180758 | 22 | 343 | 3.2 | 8.0 | 0.00 | 0.00 | 0.00 | 23 | 1014.7 |
| 20260508180657 | 22 | 338 | 3.2 | 8.0 | 0.00 | 0.00 | 0.00 | 24 | 1014.7 |
| 20260508180558 | 22 | 307 | 3.2 | 8.0 | 0.00 | 0.00 | 0.00 | 25 | 1014.8 |
| 20260508180458 | 22 | 344 | 3.2 | 8.0 | 0.00 | 0.00 | 0.00 | 26 | 1014.7 |
| 20260508180157 | 22 | 332 | 3.2 | 8.0 | 0.00 | 0.00 | 0.00 | 22 | 1014.7 |
| 20260508180057 | 22 | 254 | 4.8 | 8.0 | 0.00 | 0.00 | 0.00 | 24 | 1014.8 |
| 20260508180001 | 22 | 261 | 1.6 | 8.0 | 0.00 | 0.00 | 0.00 | 23 | 1014.8 |
| 20260508175858 | 22 | 128 | 1.6 | 8.0 | 0.00 | 0.00 | 0.00 | 23 | 1014.8 |
| 20260508175758 | 22 | 17 | 0.0 | 8.0 | 0.00 | 0.00 | 0.00 | 24 | 1014.8 |
| 20260508175657 | 22 | 47 | 0.0 | 8.0 | 0.00 | 0.00 | 0.00 | 22 | 1014.8 |
| 20260508175557 | 22 | 80 | 4.8 | 8.0 | 0.00 | 0.00 | 0.00 | 21 | 1014.8 |
| 20260508175458 | 22 | 109 | 4.8 | 8.0 | 0.00 | 0.00 | 0.00 | 25 | 1014.8 |
| 20260508175258 | 22 | 55 | 6.4 | 8.0 | 0.00 | 0.00 | 0.00 | 22 | 1014.8 |
| 20260508175157 | 21 | 39 | 4.8 | 8.0 | 0.00 | 0.00 | 0.00 | 22 | 1014.9 |
| 20260508175059 | 21 | 22 | 4.8 | 8.0 | 0.00 | 0.00 | 0.00 | 21 | 1014.9 |
| 20260508174858 | 21 | 71 | 3.2 | 12.9 | 0.00 | 0.00 | 0.00 | 22 | 1014.8 |
| 20260508174458 | 21 | 209 | 4.8 | 12.9 | 0.00 | 0.00 | 0.00 | 23 | 1014.9 |
| 20260508174357 | 21 | 150 | 3.2 | 12.9 | 0.00 | 0.00 | 0.00 | 24 | 1014.9 |
| 20260508174258 | 21 | 198 | 6.4 | 12.9 | 0.00 | 0.00 | 0.00 | 23 | 1014.8 |
| 20260508174157 | 21 | 241 | 3.2 | 12.9 | 0.00 | 0.00 | 0.00 | 22 | 1014.8 |
| 20260508174059 | 21 | 242 | 6.4 | 9.7 | 0.00 | 0.00 | 0.00 | 24 | 1014.9 |
| 20260508173958 | 21 | 290 | 4.8 | 9.7 | 0.00 | 0.00 | 0.00 | 25 | 1014.9 |
| 20260508173858 | 21 | 265 | 1.6 | 9.7 | 0.00 | 0.00 | 0.00 | 21 | 1014.9 |
| 20260508173758 | 21 | 236 | 1.6 | 9.7 | 0.00 | 0.00 | 0.00 | 25 | 1014.9 |
| 20260508173657 | 21 | 239 | 0.0 | 9.7 | 0.00 | 0.00 | 0.00 | 26 | 1014.9 |
| 20260508173558 | 21 | 271 | 4.8 | 9.7 | 0.00 | 0.00 | 0.00 | 22 | 1014.8 |
| 20260508173357 | 21 | 157 | 4.8 | 9.7 | 0.00 | 0.00 | 0.00 | 22 | 1014.9 |
| 20260508173258 | 21 | 202 | 8.0 | 9.7 | 0.00 | 0.00 | 0.00 | 21 | 1014.9 |
| 20260508173158 | 21 | 182 | 1.6 | 9.7 | 0.00 | 0.00 | 0.00 | 21 | 1014.9 |
| 20260508173058 | 21 | 199 | 3.2 | 9.7 | 0.00 | 0.00 | 0.00 | 21 | 1014.9 |
| 20260508172958 | 21 | 267 | 1.6 | 6.4 | 0.00 | 0.00 | 0.00 | 23 | 1014.9 |
| 20260508172858 | 21 | 336 | 1.6 | 6.4 | 0.00 | 0.00 | 0.00 | 24 | 1014.9 |
| 20260508172759 | 21 | 293 | 4.8 | 8.0 | 0.00 | 0.00 | 0.00 | 21 | 1014.9 |
| 20260508172658 | 21 | 229 | 4.8 | 8.0 | 0.00 | 0.00 | 0.00 | 21 | 1014.9 |
| 20260508172458 | 21 | 266 | 1.6 | 11.3 | 0.00 | 0.00 | 0.00 | 22 | 1014.9 |
| 20260508172358 | 21 | 199 | 4.8 | 11.3 | 0.00 | 0.00 | 0.00 | 23 | 1014.9 |
| 20260508172258 | 21 | 242 | 3.2 | 11.3 | 0.00 | 0.00 | 0.00 | 25 | 1014.9 |
| 20260508172057 | 21 | 277 | 4.8 | 11.3 | 0.00 | 0.00 | 0.00 | 24 | 1014.9 |
| 20260508171959 | 21 | 219 | 3.2 | 11.3 | 0.00 | 0.00 | 0.00 | 24 | 1014.9 |
| 20260508171858 | 21 | 211 | 4.8 | 11.3 | 0.00 | 0.00 | 0.00 | 20 | 1014.9 |
| 20260508171758 | 22 | 236 | 6.4 | 11.3 | 0.00 | 0.00 | 0.00 | 21 | 1014.9 |
| 20260508171657 | 22 | 209 | 4.8 | 9.7 | 0.00 | 0.00 | 0.00 | 20 | 1014.9 |
| 20260508171558 | 22 | 246 | 4.8 | 9.7 | 0.00 | 0.00 | 0.00 | 22 | 1014.9 |
| 20260508171457 | 22 | 267 | 4.8 | 6.4 | 0.00 | 0.00 | 0.00 | 22 | 1014.9 |
| 20260508171357 | 22 | 198 | 3.2 | 6.4 | 0.00 | 0.00 | 0.00 | 22 | 1014.9 |
| 20260508171259 | 22 | 238 | 3.2 | 6.4 | 0.00 | 0.00 | 0.00 | 22 | 1014.9 |
| 20260508171158 | 22 | 225 | 4.8 | 4.8 | 0.00 | 0.00 | 0.00 | 24 | 1014.9 |
| 20260508171057 | 22 | 227 | 1.6 | 4.8 | 0.00 | 0.00 | 0.00 | 21 | 1014.9 |
| 20260508170958 | 22 | 15 | 1.6 | 6.4 | 0.00 | 0.00 | 0.00 | 21 | 1014.9 |
| 20260508170858 | 21 | 32 | 1.6 | 6.4 | 0.00 | 0.00 | 0.00 | 22 | 1014.9 |
| 20260508170757 | 21 | 355 | 1.6 | 6.4 | 0.00 | 0.00 | 0.00 | 25 | 1014.9 |
| 20260508170557 | 21 | 270 | 3.2 | 6.4 | 0.00 | 0.00 | 0.00 | 22 | 1014.9 |
| 20260508170458 | 21 | 259 | 4.8 | 6.4 | 0.00 | 0.00 | 0.00 | 25 | 1014.9 |
| 20260508170358 | 21 | 257 | 0.0 | 6.4 | 0.00 | 0.00 | 0.00 | 24 | 1014.9 |
| 20260508170057 | 21 | 260 | 4.8 | 6.4 | 0.00 | 0.00 | 0.00 | 28 | 1014.9 |
| 20260508165859 | 21 | 218 | 4.8 | 6.4 | 0.00 | 0.00 | 0.00 | 22 | 1014.9 |
| 20260508165800 | 21 | 24 | 0.0 | 6.4 | 0.00 | 0.00 | 0.00 | 23 | 1014.9 |
| 20260508165659 | 21 | 355 | 1.6 | 6.4 | 0.00 | 0.00 | 0.00 | 24 | 1014.8 |
| 20260508165600 | 21 | 330 | 0.0 | 6.4 | 0.00 | 0.00 | 0.00 | 24 | 1014.9 |
| 20260508165500 | 20 | 330 | 1.6 | 6.4 | 0.00 | 0.00 | 0.00 | 24 | 1014.9 |
| 20260508165400 | 20 | 330 | 3.2 | 1054.1 | 4.55 | 0.00 | 0.00 | 24 | |
| 20260508165258 | 20 | 187 | 3.2 | 4.8 | 0.00 | 0.00 | 0.00 | 24 | 1015.0 |
| 20260508165159 | 20 | 223 | 0.0 | 4.8 | 0.00 | 0.00 | 0.00 | 22 | 1014.9 |
| 20260508165058 | 20 | 271 | 1.6 | 4.8 | 0.00 | 0.00 | 0.00 | 25 | 1014.9 |
| 20260508165000 | 20 | 267 | 1.6 | 4.8 | 0.00 | 0.00 | 0.00 | 24 | 1014.9 |
| 20260508164859 | 20 | 277 | 3.2 | 4.8 | 0.00 | 0.00 | 0.00 | 26 | 1014.9 |
| 20260508164758 | 20 | 191 | 3.2 | 4.8 | 0.00 | 0.00 | 0.00 | 22 | 1015.0 |
| 20260508164501 | 20 | 293 | 0.0 | 4.8 | 0.00 | 0.00 | 0.00 | 22 | 1014.9 |
| 20260508164359 | 20 | 298 | 1.6 | 4.8 | 0.00 | 0.00 | 0.00 | 23 | 1014.9 |
| 20260508164300 | 20 | 309 | 0.0 | 4.8 | 0.00 | 0.00 | 0.00 | 22 | 1015.0 |
| 20260508164159 | 20 | 281 | 0.0 | 4.8 | 0.00 | 0.00 | 0.00 | 23 | 1015.0 |
| 20260508164100 | 20 | 302 | 0.0 | 4.8 | 0.00 | 0.00 | 0.00 | 25 | 1014.9 |
| 20260508163859 | 20 | 310 | 3.2 | 4.8 | 0.00 | 0.00 | 0.00 | 24 | 1014.9 |
| 20260508163759 | 20 | 334 | 1.6 | 4.8 | 0.00 | 0.00 | 0.00 | 24 | 1014.9 |
| 20260508163559 | 20 | 325 | 3.2 | 4.8 | 0.00 | 0.00 | 0.00 | 25 | 1014.9 |
| 20260508163500 | 20 | 269 | 1.6 | 6.4 | 0.00 | 0.00 | 0.00 | 26 | 1014.9 |
| 20260508163259 | 20 | 197 | 1.6 | 6.4 | 0.00 | 0.00 | 0.00 | 25 | 1014.9 |
| 20260508163159 | 20 | 201 | 1.6 | 6.4 | 0.00 | 0.00 | 0.00 | 26 | 1014.9 |
| 20260508163100 | 20 | 241 | 4.8 | 6.4 | 0.00 | 0.00 | 0.00 | 28 | 1014.9 |
| 20260508162859 | 19 | 132 | 1.6 | 6.4 | 0.00 | 0.00 | 0.00 | 25 | 1014.9 |
| 20260508162759 | 19 | 103 | 1.6 | 6.4 | 0.00 | 0.00 | 0.00 | 26 | 1014.9 |
| 20260508162658 | 19 | 174 | 3.2 | 6.4 | 0.00 | 0.00 | 0.00 | 26 | 1014.9 |
| 20260508162558 | 19 | 167 | 4.8 | 6.4 | 0.00 | 0.00 | 0.00 | 25 | 1014.9 |
| 20260508162500 | 19 | 205 | 0.0 | 4.8 | 0.00 | 0.00 | 0.00 | 24 | 1014.9 |
| 20260508162359 | 19 | 192 | 1.6 | 4.8 | 0.00 | 0.00 | 0.00 | 28 | 1014.9 |
| 20260508162259 | 19 | 220 | 3.2 | 4.8 | 0.00 | 0.00 | 0.00 | 26 | 1014.9 |
| 20260508162159 | 19 | 225 | 1.6 | 4.8 | 0.00 | 0.00 | 0.00 | 26 | 1014.9 |
| 20260508162100 | 19 | 217 | 4.8 | 4.8 | 0.00 | 0.00 | 0.00 | 28 | 1014.9 |
| 20260508161959 | 19 | 178 | 1.6 | 4.8 | 0.00 | 0.00 | 0.00 | 27 | 1014.9 |
| 20260508161859 | 19 | 178 | 0.0 | 4.8 | 0.00 | 0.00 | 0.00 | 25 | 1014.9 |
| 20260508161800 | 19 | 271 | 1.6 | 4.8 | 0.00 | 0.00 | 0.00 | 27 | 1014.9 |
| 20260508161659 | 19 | 195 | 1.6 | 4.8 | 0.00 | 0.00 | 0.00 | 28 | 1014.9 |
| 20260508161559 | 19 | 249 | 1.6 | 4.8 | 0.00 | 0.00 | 0.00 | 29 | 1014.9 |
| 20260508161358 | 18 | 216 | 0.0 | 4.8 | 0.00 | 0.00 | 0.00 | 26 | 1014.9 |
| 20260508161259 | 18 | 216 | 1.6 | 4.8 | 0.00 | 0.00 | 0.00 | 27 | 1014.8 |
| 20260508161200 | 18 | 216 | 1.6 | 4.8 | 0.00 | 0.00 | 0.00 | 26 | 1014.9 |
| 20260508161059 | 18 | 215 | 3.2 | 4.8 | 0.00 | 0.00 | 0.00 | 27 | 1014.9 |
| 20260508161000 | 18 | 241 | 3.2 | 4.8 | 0.00 | 0.00 | 0.00 | 26 | 1014.9 |
| 20260508160859 | 18 | 213 | 3.2 | 4.8 | 0.00 | 0.00 | 0.00 | 28 | 1014.9 |
| 20260508160759 | 18 | 179 | 1.6 | 3.2 | 0.00 | 0.00 | 0.00 | 29 | 1014.8 |
| 20260508160659 | 18 | 179 | 3.2 | 4.8 | 0.00 | 0.00 | 0.00 | 28 | 1014.8 |
| 20260508160559 | 18 | 203 | 1.6 | 4.8 | 0.00 | 0.00 | 0.00 | 26 | 1014.8 |
| 20260508160500 | 18 | 203 | 0.0 | 4.8 | 0.00 | 0.00 | 0.00 | 26 | 1014.9 |
| 20260508160359 | 18 | 203 | 0.0 | 4.8 | 0.00 | 0.00 | 0.00 | 25 | 1014.9 |
| 20260508160259 | 18 | 203 | 3.2 | 4.8 | 0.00 | 0.00 | 0.00 | 25 | 1014.8 |
| 20260508160159 | 18 | 195 | 1.6 | 4.8 | 0.00 | 0.00 | 0.00 | 25 | 1014.8 |
| 20260508160058 | 18 | 184 | 1.6 | 4.8 | 0.00 | 0.00 | 0.00 | 26 | 1014.8 |
| 20260508155658 | 18 | 196 | 0.0 | 4.8 | 0.00 | 0.00 | 0.00 | 26 | 1014.8 |
| 20260508155559 | 18 | 196 | 0.0 | 4.8 | 0.00 | 0.00 | 0.00 | 27 | 1014.8 |
| 20260508155358 | 18 | 196 | 0.0 | 4.8 | 0.00 | 0.00 | 0.00 | 33 | 1014.8 |
| 20260508155259 | 17 | 196 | 0.0 | 4.8 | 0.00 | 0.00 | 0.00 | 33 | 1014.8 |
| 20260508155158 | 17 | 196 | 1.6 | 4.8 | 0.00 | 0.00 | 0.00 | 29 | 1014.8 |
| 20260508155059 | 17 | 192 | 3.2 | 4.8 | 0.00 | 0.00 | 0.00 | 28 | 1014.8 |
| 20260508155000 | 17 | 204 | 3.2 | 4.8 | 0.00 | 0.00 | 0.00 | 28 | 1014.8 |
| 20260508154859 | 17 | 214 | 1.6 | 4.8 | 0.00 | 0.00 | 0.00 | 32 | 1014.8 |
| 20260508154758 | 17 | 219 | 3.2 | 4.8 | 0.00 | 0.00 | 0.00 | 32 | 1014.8 |
| 20260508154659 | 17 | 221 | 3.2 | 4.8 | 0.00 | 0.00 | 0.00 | 27 | 1014.8 |
| 20260508154559 | 17 | 210 | 0.0 | 6.4 | 0.00 | 0.00 | 0.00 | 27 | 1014.8 |
| 20260508154459 | 17 | 210 | 1.6 | 6.4 | 0.00 | 0.00 | 0.00 | 27 | 1014.8 |
| 20260508154400 | 17 | 215 | 0.0 | 6.4 | 0.00 | 0.00 | 0.00 | 28 | 1014.8 |
| 20260508154259 | 17 | 215 | 0.0 | 6.4 | 0.00 | 0.00 | 0.00 | 28 | 1014.8 |
| 20260508154159 | 17 | 215 | 1.6 | 6.4 | 0.00 | 0.00 | 0.00 | 28 | 1014.8 |
| 20260508154059 | 17 | 215 | 1.6 | 6.4 | 0.00 | 0.00 | 0.00 | 27 | 1014.8 |
| 20260508154000 | 17 | 210 | 1.6 | 6.4 | 0.00 | 0.00 | 0.00 | 28 | 1014.8 |
| 20260508153900 | 17 | 215 | 1.6 | 6.4 | 0.00 | 0.00 | 0.00 | 29 | 1014.8 |
| 20260508153759 | 17 | 180 | 1.6 | 6.4 | 0.00 | 0.00 | 0.00 | 29 | 1014.7 |
| 20260508153659 | 17 | 198 | 4.8 | 6.4 | 0.00 | 0.00 | 0.00 | 32 | 1014.8 |
| 20260508153601 | 18 | 189 | 3.2 | 6.4 | 0.00 | 0.00 | 0.00 | 32 | 1014.8 |
| 20260508153500 | 18 | 204 | 3.2 | 6.4 | 0.00 | 0.00 | 0.00 | 29 | 1014.7 |
| 20260508153359 | 18 | 215 | 4.8 | 4.8 | 0.00 | 0.00 | 0.00 | 29 | 1014.7 |
| 20260508153159 | 18 | 236 | 3.2 | 6.4 | 0.00 | 0.00 | 0.00 | 28 | 1014.7 |
| 20260508153059 | 17 | 190 | 3.2 | 6.4 | 0.00 | 0.00 | 0.00 | 28 | 1014.7 |
| 20260508152659 | 17 | 104 | 1.6 | 6.4 | 0.00 | 0.00 | 0.00 | 26 | 1014.7 |
| 20260508152559 | 17 | 82 | 0.0 | 6.4 | 0.00 | 0.00 | 0.00 | 27 | 1014.7 |
| 20260508152500 | 17 | 80 | 0.0 | 6.4 | 0.00 | 0.00 | 0.00 | 26 | 1014.7 |
| 20260508152359 | 17 | 84 | 1.6 | 6.4 | 0.00 | 0.00 | 0.00 | 26 | 1014.7 |
| 20260508152259 | 17 | 63 | 3.2 | 6.4 | 0.00 | 0.00 | 0.00 | 26 | 1014.8 |
| 20260508152159 | 16 | 70 | 3.2 | 6.4 | 0.00 | 0.00 | 0.00 | 27 | 1014.7 |
| 20260508152059 | 16 | 104 | 4.8 | 8.0 | 0.00 | 0.00 | 0.00 | 28 | 1014.8 |
| 20260508151859 | 16 | 74 | 3.2 | 8.0 | 0.00 | 0.00 | 0.00 | 29 | 1014.8 |
| 20260508151659 | 16 | 94 | 4.8 | 4.8 | 0.00 | 0.00 | 0.00 | 30 | 1014.8 |
| 20260508151559 | 16 | 89 | 3.2 | 6.4 | 0.00 | 0.00 | 0.00 | 34 | 1014.8 |
| 20260508151500 | 16 | 103 | 3.2 | 6.4 | 0.00 | 0.00 | 0.00 | 34 | 1014.8 |
| 20260508151359 | 16 | 130 | 1.6 | 6.4 | 0.00 | 0.00 | 0.00 | 33 | 1014.8 |
| 20260508151200 | 16 | 111 | 3.2 | 6.4 | 0.00 | 0.00 | 0.00 | 33 | 1014.8 |
| 20260508151058 | 15 | 161 | 3.2 | 6.4 | 0.00 | 0.00 | 0.00 | 32 | 1014.8 |
| 20260508150959 | 15 | 149 | 0.0 | 6.4 | 0.00 | 0.00 | 0.00 | 35 | 1014.8 |
| 20260508150900 | 15 | 149 | 3.2 | 6.4 | 0.00 | 0.00 | 0.00 | 34 | 1014.8 |
| 20260508150759 | 15 | 150 | 3.2 | 6.4 | 0.00 | 0.00 | 0.00 | 36 | 1014.8 |
| 20260508150659 | 15 | 157 | 3.2 | 6.4 | 0.00 | 0.00 | 0.00 | 34 | 1014.8 |
| 20260508150559 | 15 | 154 | 3.2 | 6.4 | 0.00 | 0.00 | 0.00 | 35 | 1014.8 |
| 20260508150459 | 15 | 153 | 1.6 | 6.4 | 0.00 | 0.00 | 0.00 | 36 | 1014.8 |
| 20260508150359 | 15 | 153 | 3.2 | 6.4 | 0.00 | 0.00 | 0.00 | 35 | 1014.8 |
| 20260508150200 | 15 | 153 | 3.2 | 6.4 | 0.00 | 0.00 | 0.00 | 37 | 1014.8 |
| 20260508150059 | 15 | 148 | 3.2 | 6.4 | 0.00 | 0.00 | 0.00 | 37 | 1014.8 |
| 20260508150002 | 15 | 153 | 0.0 | 6.4 | 0.00 | 0.00 | 0.00 | 37 | 1014.8 |
| 20260508145859 | 15 | 121 | 4.8 | 6.4 | 0.00 | 0.00 | 0.00 | 38 | 1014.7 |
| 20260508145759 | 15 | 147 | 3.2 | 6.4 | 0.00 | 0.00 | 0.00 | 37 | 1014.8 |
| 20260508145659 | 15 | 157 | 1.6 | 6.4 | 0.00 | 0.00 | 0.00 | 35 | 1014.7 |
| 20260508145558 | 15 | 151 | 4.8 | 6.4 | 0.00 | 0.00 | 0.00 | 35 | 1014.7 |
| 20260508145500 | 15 | 139 | 3.2 | 6.4 | 0.00 | 0.00 | 0.00 | 35 | 1014.7 |
| 20260508145400 | 15 | 148 | 1.6 | 6.4 | 0.00 | 0.00 | 0.00 | 35 | 1014.7 |
| 20260508145300 | 15 | 131 | 1.6 | 6.4 | 0.00 | 0.00 | 0.00 | 39 | 1014.6 |
| 20260508145159 | 15 | 126 | 1.6 | 6.4 | 0.00 | 0.00 | 0.00 | 37 | 1014.7 |
| 20260508145059 | 15 | 150 | 3.2 | 6.4 | 0.00 | 0.00 | 0.00 | 37 | 1014.7 |
| 20260508145000 | 15 | 172 | 0.0 | 6.4 | 0.00 | 0.00 | 0.00 | 38 | 1014.7 |
| 20260508144859 | 15 | 212 | 0.0 | 6.4 | 0.00 | 0.00 | 0.00 | 39 | 1014.6 |
| 20260508144800 | 14 | 212 | 1.6 | 6.4 | 0.00 | 0.00 | 0.00 | 36 | 1014.6 |
| 20260508144658 | 14 | 205 | 4.8 | 6.4 | 0.00 | 0.00 | 0.00 | 37 | 1014.6 |
| 20260508144559 | 14 | 209 | 4.8 | 6.4 | 0.00 | 0.00 | 0.00 | 39 | 1014.6 |
| 20260508144500 | 14 | 213 | 3.2 | 4.8 | 0.00 | 0.00 | 0.00 | 42 | 1014.6 |
| 20260508144358 | 14 | 207 | 3.2 | 4.8 | 0.00 | 0.00 | 0.00 | 39 | 1014.5 |
| 20260508144259 | 14 | 236 | 3.2 | 3.2 | 0.00 | 0.00 | 0.00 | 37 | 1014.6 |
| 20260508144159 | 14 | 219 | 0.0 | 0.0 | 0.00 | 0.00 | 0.00 | 35 | 1014.6 |
| 20260508144059 | 14 | 225 | 0.0 | 0.0 | 0.00 | 0.00 | 0.00 | 37 | 1014.6 |
| 20260508144000 | 14 | 225 | 0.0 | 0.0 | 0.00 | 0.00 | 0.00 | 43 | 1014.6 |
| 20260508143859 | 14 | 257 | 0.0 | 0.0 | 0.00 | 0.00 | 0.00 | 43 | 1014.5 |
| 20260508143759 | 14 | 264 | 0.0 | 0.0 | 0.00 | 0.00 | 0.00 | 43 | 1014.5 |
| 20260508143659 | 14 | 179 | 0.0 | 0.0 | 0.00 | 0.00 | 0.00 | 42 | 1014.5 |
| 20260508143559 | 14 | 179 | 0.0 | 0.0 | 0.00 | 0.00 | 0.00 | 38 | 1014.5 |
| 20260508143501 | 14 | 121 | 0.0 | 0.0 | 0.00 | 0.00 | 0.00 | 40 | 1014.5 |
| 20260508143359 | 14 | 121 | 0.0 | 0.0 | 0.00 | 0.00 | 0.00 | 41 | 1014.5 |
| 20260508143258 | 14 | 121 | 0.0 | 0.0 | 0.00 | 0.00 | 0.00 | 37 | 1014.5 |
| 20260508143200 | 13 | 117 | 0.0 | 0.0 | 0.00 | 0.00 | 0.00 | 37 | 1014.4 |
| 20260508143100 | 13 | 117 | 0.0 | 0.0 | 0.00 | 0.00 | 0.00 | 39 | 1014.4 |
| 20260508143000 | 13 | 117 | 0.0 | 0.0 | 0.00 | 0.00 | 0.00 | 39 | 1014.4 |
| 20260508142659 | 13 | 117 | 0.0 | 0.0 | 0.00 | 0.00 | 0.00 | 38 | 1014.4 |
| 20260508142559 | 13 | 90 | 0.0 | 0.0 | 0.00 | 0.00 | 0.00 | 38 | 1014.4 |
| 20260508142500 | 13 | 88 | 0.0 | 0.0 | 0.00 | 0.00 | 0.00 | 39 | 1014.4 |
| 20260508142159 | 13 | 89 | 0.0 | 0.0 | 0.00 | 0.00 | 0.00 | 38 | 1014.3 |
| 20260508142059 | 13 | 89 | 0.0 | 0.0 | 0.00 | 0.00 | 0.00 | 36 | 1014.3 |
| 20260508142000 | 13 | 89 | 0.0 | 0.0 | 0.00 | 0.00 | 0.00 | 39 | 1014.3 |
| 20260508141859 | 13 | 89 | 0.0 | 0.0 | 0.00 | 0.00 | 0.00 | 37 | 1014.2 |
| 20260508141759 | 13 | 89 | 0.0 | 0.0 | 0.00 | 0.00 | 0.00 | 37 | 1014.2 |
| 20260508141659 | 13 | 89 | 0.0 | 0.0 | 0.00 | 0.00 | 0.00 | 40 | 1014.3 |
| 20260508141559 | 13 | 89 | 0.0 | 0.0 | 0.00 | 0.00 | 0.00 | 41 | 1014.3 |
| 20260508141459 | 13 | 89 | 0.0 | 0.0 | 0.00 | 0.00 | 0.00 | 43 | 1014.2 |
| 20260508141259 | 12 | 89 | 0.0 | 0.0 | 0.00 | 0.00 | 0.00 | 41 | 1014.2 |
| 20260508141159 | 12 | 88 | 0.0 | 0.0 | 0.00 | 0.00 | 0.00 | 42 | 1014.2 |
| 20260508141059 | 12 | 89 | 0.0 | 0.0 | 0.00 | 0.00 | 0.00 | 42 | 1014.2 |
| 20260508140959 | 12 | 88 | 0.0 | 0.0 | 0.00 | 0.00 | 0.00 | 43 | 1014.2 |
| 20260508140859 | 12 | 89 | 0.0 | 0.0 | 0.00 | 0.00 | 0.00 | 40 | 1014.2 |
| 20260508140758 | 12 | 89 | 0.0 | 0.0 | 0.00 | 0.00 | 0.00 | 41 | 1014.2 |
| 20260508140559 | 12 | 89 | 0.0 | 0.0 | 0.00 | 0.00 | 0.00 | 41 | 1014.2 |
| 20260508140500 | 12 | 89 | 0.0 | 0.0 | 0.00 | 0.00 | 0.00 | 42 | 1014.1 |
| 20260508140259 | 12 | 89 | 0.0 | 0.0 | 0.00 | 0.00 | 0.00 | 44 | 1014.1 |
| 20260508140159 | 12 | 89 | 0.0 | 0.0 | 0.00 | 0.00 | 0.00 | 40 | 1014.1 |
| 20260508140059 | 12 | 89 | 0.0 | 0.0 | 0.00 | 0.00 | 0.00 | 43 | 1014.1 |
| 20260508135859 | 12 | 89 | 0.0 | 0.0 | 0.00 | 0.00 | 0.00 | 42 | 1014.1 |
| 20260508135759 | 12 | 89 | 0.0 | 3.2 | 0.00 | 0.00 | 0.00 | 41 | 1014.0 |
| 20260508135658 | 11 | 89 | 0.0 | 3.2 | 0.00 | 0.00 | 0.00 | 41 | 1014.0 |
| 20260508135500 | 11 | 88 | 0.0 | 3.2 | 0.00 | 0.00 | 0.00 | 41 | 1014.0 |
| 20260508135359 | 11 | 89 | 0.0 | 3.2 | 0.00 | 0.00 | 0.00 | 41 | 1014.0 |
| 20260508135059 | 11 | 88 | 0.0 | 3.2 | 0.00 | 0.00 | 0.00 | 39 | 1014.1 |
| 20260508135000 | 11 | 88 | 0.0 | 3.2 | 0.00 | 0.00 | 0.00 | 39 | 1014.0 |
| 20260508134859 | 11 | 88 | 0.0 | 3.2 | 0.00 | 0.00 | 0.00 | 39 | 1014.0 |
| 20260508134800 | 11 | 88 | 3.2 | 3.2 | 0.00 | 0.00 | 0.00 | 39 | 1014.0 |
| 20260508134559 | 11 | 82 | 3.2 | 4.8 | 0.00 | 0.00 | 0.00 | 41 | 1014.0 |
| 20260508134459 | 11 | 81 | 3.2 | 4.8 | 0.00 | 0.00 | 0.00 | 43 | 1013.9 |
| 20260508134359 | 11 | 75 | 1.6 | 4.8 | 0.00 | 0.00 | 0.00 | 42 | 1014.0 |
| 20260508134300 | 11 | 96 | 1.6 | 4.8 | 0.00 | 0.00 | 0.00 | 42 | 1014.0 |
| 20260508134200 | 11 | 96 | 0.0 | 4.8 | 0.00 | 0.00 | 0.00 | 43 | 1014.0 |
| 20260508134059 | 11 | 96 | 1.6 | 4.8 | 0.00 | 0.00 | 0.00 | 44 | 1014.0 |
| 20260508134000 | 11 | 94 | 0.0 | 4.8 | 0.00 | 0.00 | 0.00 | 44 | 1013.9 |
| 20260508133559 | 11 | 119 | 1.6 | 3.2 | 0.00 | 0.00 | 0.00 | 42 | 1013.9 |
| 20260508133500 | 11 | 119 | 0.0 | 3.2 | 0.00 | 0.00 | 0.00 | 43 | 1013.9 |
| 20260508133401 | 11 | 119 | 1.6 | 3.2 | 0.00 | 0.00 | 0.00 | 43 | 1013.9 |
| 20260508133259 | 11 | 119 | 0.0 | 3.2 | 0.00 | 0.00 | 0.00 | 43 | 1013.9 |
| 20260508133159 | 11 | 119 | 0.0 | 3.2 | 0.00 | 0.00 | 0.00 | 43 | 1013.9 |
| 20260508133101 | 11 | 119 | 3.2 | 3.2 | 0.00 | 0.00 | 0.00 | 43 | 1013.9 |
| 20260508132959 | 11 | 119 | 1.6 | 1.6 | 0.00 | 0.00 | 0.00 | 42 | 1013.9 |
| 20260508132859 | 11 | 119 | 0.0 | 1.6 | 0.00 | 0.00 | 0.00 | 43 | 1013.9 |
| 20260508132759 | 11 | 119 | 0.0 | 1.6 | 0.00 | 0.00 | 0.00 | 42 | 1013.9 |
| 20260508132659 | 11 | 119 | 0.0 | 4.8 | 0.00 | 0.00 | 0.00 | 42 | 1013.8 |
| 20260508132559 | 11 | 119 | 0.0 | 4.8 | 0.00 | 0.00 | 0.00 | 42 | 1013.9 |
| 20260508132459 | 11 | 119 | 1.6 | 4.8 | 0.00 | 0.00 | 0.00 | 42 | 1013.9 |
| 20260508132259 | 11 | 119 | 0.0 | 4.8 | 0.00 | 0.00 | 0.00 | 43 | 1013.9 |
| 20260508132159 | 11 | 119 | 0.0 | 4.8 | 0.00 | 0.00 | 0.00 | 43 | 1013.8 |
| 20260508132059 | 11 | 119 | 0.0 | 4.8 | 0.00 | 0.00 | 0.00 | 43 | 1013.8 |
| 20260508132000 | 11 | 119 | 1.6 | 4.8 | 0.00 | 0.00 | 0.00 | 43 | 1013.8 |
| 20260508131859 | 11 | 119 | 1.6 | 4.8 | 0.00 | 0.00 | 0.00 | 42 | 1013.8 |
| 20260508131759 | 11 | 121 | 3.2 | 3.2 | 0.00 | 0.00 | 0.00 | 43 | 1013.8 |
| 20260508131658 | 11 | 123 | 0.0 | 0.0 | 0.00 | 0.00 | 0.00 | 43 | 1013.8 |
| 20260508131459 | 11 | 123 | 0.0 | 0.0 | 0.00 | 0.00 | 0.00 | 42 | 1013.7 |
| 20260508131400 | 11 | 123 | 0.0 | 0.0 | 0.00 | 0.00 | 0.00 | 42 | 1013.7 |
| 20260508131300 | 11 | 123 | 0.0 | 0.0 | 0.00 | 0.00 | 0.00 | 42 | 1013.7 |
| 20260508131159 | 11 | 123 | 0.0 | 0.0 | 0.00 | 0.00 | 0.00 | 42 | 1013.7 |
| 20260508131059 | 11 | 123 | 0.0 | 0.0 | 0.00 | 0.00 | 0.00 | 41 | 1013.7 |
| 20260508130959 | 11 | 123 | 0.0 | 0.0 | 0.00 | 0.00 | 0.00 | 41 | 1013.7 |
| 20260508130858 | 11 | 123 | 0.0 | 0.0 | 0.00 | 0.00 | 0.00 | 42 | 1013.6 |
| 20260508130759 | 11 | 123 | 0.0 | 0.0 | 0.00 | 0.00 | 0.00 | 42 | 1013.7 |
| 20260508130659 | 11 | 123 | 0.0 | 0.0 | 0.00 | 0.00 | 0.00 | 42 | 1013.6 |
| 20260508130559 | 11 | 123 | 0.0 | 0.0 | 0.00 | 0.00 | 0.00 | 42 | 1013.6 |
| 20260508130500 | 11 | 123 | 0.0 | 0.0 | 0.00 | 0.00 | 0.00 | 41 | 1013.6 |
| 20260508130259 | 11 | 123 | 0.0 | 0.0 | 0.00 | 0.00 | 0.00 | 41 | 1013.5 |
| 20260508130058 | 11 | 123 | 0.0 | 0.0 | 0.00 | 0.00 | 0.00 | 41 | 1013.6 |
| 20260508130001 | 11 | 123 | 0.0 | 0.0 | 0.00 | 0.00 | 0.00 | 40 | 1013.6 |
| 20260508125800 | 11 | 126 | 0.0 | 1.6 | 0.00 | 0.00 | 0.00 | 40 | 1013.6 |
| 20260508125659 | 11 | 126 | 0.0 | 1.6 | 0.00 | 0.00 | 0.00 | 39 | 1013.6 |
| 20260508125559 | 11 | 126 | 0.0 | 1.6 | 0.00 | 0.00 | 0.00 | 39 | 1013.5 |
| 20260508125501 | 11 | 126 | 0.0 | 1.6 | 0.00 | 0.00 | 0.00 | 39 | 1013.6 |
| 20260508125400 | 11 | 126 | 0.0 | 3.2 | 0.00 | 0.00 | 0.00 | 39 | 1013.5 |
| 20260508125200 | 11 | 126 | 0.0 | 3.2 | 0.00 | 0.00 | 0.00 | 39 | 1013.5 |
| 20260508125059 | 11 | 126 | 0.0 | 3.2 | 0.00 | 0.00 | 0.00 | 39 | 1013.5 |
| 20260508124900 | 11 | 126 | 0.0 | 3.2 | 0.00 | 0.00 | 0.00 | 38 | 1013.5 |
| 20260508124759 | 11 | 126 | 0.0 | 3.2 | 0.00 | 0.00 | 0.00 | 38 | 1013.4 |
| 20260508124659 | 11 | 126 | 0.0 | 3.2 | 0.00 | 0.00 | 0.00 | 37 | 1013.4 |
| 20260508124600 | 11 | 126 | 0.0 | 3.2 | 0.00 | 0.00 | 0.00 | 36 | 1013.4 |
| 20260508124459 | 11 | 126 | 1.6 | 3.2 | 0.00 | 0.00 | 0.00 | 37 | 1013.4 |
| 20260508124359 | 11 | 126 | 0.0 | 3.2 | 0.00 | 0.00 | 0.00 | 37 | 1013.4 |
| 20260508124259 | 11 | 126 | 3.2 | 3.2 | 0.00 | 0.00 | 0.00 | 37 | 1013.4 |
| 20260508124200 | 11 | 126 | 1.6 | 3.2 | 0.00 | 0.00 | 0.00 | 37 | 1013.4 |
| 20260508124100 | 11 | 126 | 0.0 | 3.2 | 0.00 | 0.00 | 0.00 | 37 | 1013.4 |
| 20260508124000 | 11 | 126 | 0.0 | 3.2 | 0.00 | 0.00 | 0.00 | 36 | 1013.4 |
| 20260508123859 | 11 | 126 | 3.2 | 3.2 | 0.00 | 0.00 | 0.00 | 36 | 1013.4 |
| 20260508123758 | 11 | 126 | 1.6 | 3.2 | 0.00 | 0.00 | 0.00 | 36 | 1013.4 |
| 20260508123659 | 11 | 126 | 0.0 | 3.2 | 0.00 | 0.00 | 0.00 | 36 | 1013.4 |
| 20260508123459 | 11 | 126 | 0.0 | 3.2 | 0.00 | 0.00 | 0.00 | 36 | 1013.4 |
| 20260508123359 | 11 | 126 | 3.2 | 3.2 | 0.00 | 0.00 | 0.00 | 36 | 1013.3 |
| 20260508123300 | 11 | 129 | 0.0 | 3.2 | 0.00 | 0.00 | 0.00 | 37 | 1013.4 |
| 20260508123200 | 11 | 129 | 1.6 | 3.2 | 0.00 | 0.00 | 0.00 | 36 | 1013.4 |
| 20260508123105 | 11 | 128 | 0.0 | 3.2 | 0.00 | 0.00 | 0.00 | 36 | 1013.3 |
| 20260508122900 | 11 | 128 | 1.6 | 3.2 | 0.00 | 0.00 | 0.00 | 36 | 1013.3 |
| 20260508122658 | 11 | 130 | 0.0 | 3.2 | 0.00 | 0.00 | 0.00 | 36 | 1013.4 |
| 20260508122558 | 11 | 130 | 0.0 | 3.2 | 0.00 | 0.00 | 0.00 | 35 | 1013.3 |
| 20260508122500 | 11 | 130 | 0.0 | 3.2 | 0.00 | 0.00 | 0.00 | 36 | 1013.3 |
| 20260508122359 | 12 | 130 | 3.2 | 3.2 | 0.00 | 0.00 | 0.00 | 37 | 1013.3 |
| 20260508122200 | 12 | 121 | 1.6 | 4.8 | 0.00 | 0.00 | 0.00 | 36 | 1013.3 |
| 20260508122100 | 12 | 121 | 0.0 | 4.8 | 0.00 | 0.00 | 0.00 | 36 | 1013.3 |
| 20260508121959 | 12 | 120 | 3.2 | 4.8 | 0.00 | 0.00 | 0.00 | 36 | 1013.3 |
| 20260508121859 | 12 | 120 | 1.6 | 4.8 | 0.00 | 0.00 | 0.00 | 35 | 1013.3 |
| 20260508121758 | 12 | 120 | 1.6 | 4.8 | 0.00 | 0.00 | 0.00 | 35 | 1013.3 |
| 20260508121659 | 12 | 119 | 0.0 | 4.8 | 0.00 | 0.00 | 0.00 | 35 | 1013.3 |
| 20260508121559 | 12 | 119 | 0.0 | 4.8 | 0.00 | 0.00 | 0.00 | 34 | 1013.2 |
| 20260508121459 | 12 | 119 | 1.6 | 4.8 | 0.00 | 0.00 | 0.00 | 34 | 1013.2 |
| 20260508121359 | 12 | 104 | 1.6 | 4.8 | 0.00 | 0.00 | 0.00 | 34 | 1013.2 |
| 20260508121259 | 12 | 103 | 1.6 | 4.8 | 0.00 | 0.00 | 0.00 | 35 | 1013.2 |
| 20260508121159 | 12 | 119 | 0.0 | 3.2 | 0.00 | 0.00 | 0.00 | 33 | 1013.2 |
| 20260508121000 | 12 | 119 | 1.6 | 3.2 | 0.00 | 0.00 | 0.00 | 34 | 1013.2 |
| 20260508120859 | 12 | 119 | 0.0 | 3.2 | 0.00 | 0.00 | 0.00 | 33 | 1013.2 |
| 20260508120759 | 12 | 126 | 1.6 | 3.2 | 0.00 | 0.00 | 0.00 | 33 | 1013.2 |
| 20260508120659 | 12 | 126 | 1.6 | 3.2 | 0.00 | 0.00 | 0.00 | 34 | 1013.2 |
| 20260508120559 | 12 | 126 | 1.6 | 3.2 | 0.00 | 0.00 | 0.00 | 33 | 1013.1 |
| 20260508120500 | 12 | 126 | 0.0 | 3.2 | 0.00 | 0.00 | 0.00 | 33 | 1013.2 |
| 20260508120359 | 12 | 126 | 1.6 | 4.8 | 0.00 | 0.00 | 0.00 | 33 | 1013.2 |
| 20260508120258 | 12 | 126 | 1.6 | 4.8 | 0.00 | 0.00 | 0.00 | 33 | 1013.2 |
| 20260508120001 | 12 | 127 | 0.0 | 4.8 | 0.00 | 0.00 | 0.00 | 34 | 1013.1 |
| 20260508115858 | 12 | 132 | 1.6 | 4.8 | 0.00 | 0.00 | 0.00 | 33 | 1013.1 |
| 20260508115759 | 12 | 132 | 1.6 | 4.8 | 0.00 | 0.00 | 0.00 | 33 | 1013.2 |
| 20260508115658 | 12 | 132 | 1.6 | 4.8 | 0.00 | 0.00 | 0.00 | 33 | 1013.1 |
| 20260508115558 | 12 | 132 | 1.6 | 4.8 | 0.00 | 0.00 | 0.00 | 33 | 1013.1 |
| 20260508115459 | 12 | 111 | 1.6 | 8.0 | 0.00 | 0.00 | 0.00 | 33 | 1013.1 |
| 20260508115359 | 12 | 110 | 1.6 | 8.0 | 0.00 | 0.00 | 0.00 | 33 | 1013.0 |
| 20260508115259 | 12 | 107 | 1.6 | 8.0 | 0.00 | 0.00 | 0.00 | 33 | 1013.1 |
| 20260508115200 | 12 | 105 | 1.6 | 8.0 | 0.00 | 0.00 | 0.00 | 32 | 1013.0 |
| 20260508114959 | 12 | 83 | 0.0 | 8.0 | 0.00 | 0.00 | 0.00 | 32 | 1013.0 |
| 20260508114859 | 12 | 85 | 3.2 | 8.0 | 0.00 | 0.00 | 0.00 | 32 | 1013.1 |
| 20260508114758 | 12 | 88 | 0.0 | 8.0 | 0.00 | 0.00 | 0.00 | 33 | 1013.1 |
| 20260508114658 | 12 | 88 | 1.6 | 8.0 | 0.00 | 0.00 | 0.00 | 33 | 1013.1 |
| 20260508114558 | 11 | 80 | 4.8 | 4.8 | 0.00 | 0.00 | 0.00 | 33 | 1013.0 |
| 20260508114459 | 11 | 116 | 0.0 | 3.2 | 0.00 | 0.00 | 0.00 | 34 | 1013.0 |
| 20260508114359 | 11 | 116 | 3.2 | 3.2 | 0.00 | 0.00 | 0.00 | 35 | 1013.0 |
| 20260508114259 | 11 | 127 | 1.6 | 3.2 | 0.00 | 0.00 | 0.00 | 35 | 1013.0 |
| 20260508114059 | 11 | 130 | 0.0 | 3.2 | 0.00 | 0.00 | 0.00 | 36 | 1013.0 |
| 20260508113959 | 11 | 102 | 1.6 | 4.8 | 0.00 | 0.00 | 0.00 | 35 | 1013.0 |
| 20260508113858 | 12 | 112 | 0.0 | 4.8 | 0.00 | 0.00 | 0.00 | 36 | 1013.0 |
| 20260508113758 | 12 | 113 | 1.6 | 4.8 | 0.00 | 0.00 | 0.00 | 35 | 1013.0 |
| 20260508113658 | 12 | 113 | 1.6 | 4.8 | 0.00 | 0.00 | 0.00 | 36 | 1013.0 |
| 20260508113558 | 12 | 108 | 1.6 | 4.8 | 0.00 | 0.00 | 0.00 | 35 | 1012.9 |
| 20260508113459 | 12 | 105 | 1.6 | 4.8 | 0.00 | 0.00 | 0.00 | 35 | 1013.0 |
| 20260508113359 | 12 | 105 | 0.0 | 4.8 | 0.00 | 0.00 | 0.00 | 35 | 1013.0 |
| 20260508113258 | 12 | 105 | 1.6 | 4.8 | 0.00 | 0.00 | 0.00 | 35 | 1013.0 |
| 20260508113158 | 11 | 105 | 3.2 | 4.8 | 0.00 | 0.00 | 0.00 | 35 | 1013.0 |
| 20260508113059 | 11 | 110 | 3.2 | 3.2 | 0.00 | 0.00 | 0.00 | 35 | 1013.0 |
| 20260508112959 | 11 | 132 | 0.0 | 3.2 | 0.00 | 0.00 | 0.00 | 36 | 1013.0 |
| 20260508112900 | 11 | 123 | 0.0 | 3.2 | 0.00 | 0.00 | 0.00 | 36 | 1013.0 |
| 20260508112759 | 11 | 122 | 3.2 | 3.2 | 0.00 | 0.00 | 0.00 | 35 | 1013.0 |
| 20260508112658 | 11 | 108 | 1.6 | 3.2 | 0.00 | 0.00 | 0.00 | 35 | 1013.0 |
| 20260508112600 | 11 | 108 | 1.6 | 3.2 | 0.00 | 0.00 | 0.00 | 35 | 1013.0 |
| 20260508112459 | 11 | 107 | 0.0 | 3.2 | 0.00 | 0.00 | 0.00 | 35 | 1012.9 |
| 20260508112359 | 11 | 108 | 0.0 | 3.2 | 0.00 | 0.00 | 0.00 | 35 | 1012.9 |
| 20260508112259 | 11 | 108 | 1.6 | 3.2 | 0.00 | 0.00 | 0.00 | 35 | 1013.0 |
| 20260508111959 | 11 | 99 | 1.6 | 3.2 | 0.00 | 0.00 | 0.00 | 36 | 1012.9 |
| 20260508111859 | 11 | 98 | 0.0 | 3.2 | 0.00 | 0.00 | 0.00 | 37 | 1012.9 |
| 20260508111759 | 11 | 98 | 0.0 | 3.2 | 0.00 | 0.00 | 0.00 | 37 | 1012.9 |
| 20260508111659 | 11 | 98 | 0.0 | 3.2 | 0.00 | 0.00 | 0.00 | 37 | 1012.9 |
| 20260508111558 | 11 | 98 | 1.6 | 1.6 | 0.00 | 0.00 | 0.00 | 37 | 1012.9 |
| 20260508111459 | 11 | 98 | 1.6 | 4.8 | 0.00 | 0.00 | 0.00 | 37 | 1012.9 |
| 20260508111359 | 11 | 82 | 0.0 | 4.8 | 0.00 | 0.00 | 0.00 | 37 | 1012.9 |
| 20260508111259 | 11 | 82 | 0.0 | 4.8 | 0.00 | 0.00 | 0.00 | 36 | 1012.9 |
| 20260508111158 | 11 | 82 | 0.0 | 4.8 | 0.00 | 0.00 | 0.00 | 36 | 1012.9 |
| 20260508111059 | 11 | 82 | 1.6 | 4.8 | 0.00 | 0.00 | 0.00 | 37 | 1012.9 |
| 20260508111000 | 11 | 82 | 0.0 | 4.8 | 0.00 | 0.00 | 0.00 | 37 | 1013.0 |
| 20260508110859 | 11 | 82 | 0.0 | 4.8 | 0.00 | 0.00 | 0.00 | 37 | 1013.0 |
| 20260508110758 | 11 | 82 | 0.0 | 4.8 | 0.00 | 0.00 | 0.00 | 38 | 1012.9 |
| 20260508110559 | 11 | 82 | 3.2 | 4.8 | 0.00 | 0.00 | 0.00 | 37 | 1012.9 |
| 20260508110459 | 11 | 96 | 1.6 | 3.2 | 0.00 | 0.00 | 0.00 | 37 | 1012.9 |
| 20260508110358 | 11 | 98 | 1.6 | 3.2 | 0.00 | 0.00 | 0.00 | 36 | 1012.8 |
| 20260508110258 | 11 | 98 | 1.6 | 3.2 | 0.00 | 0.00 | 0.00 | 36 | 1012.9 |
| 20260508110200 | 11 | 98 | 1.6 | 3.2 | 0.00 | 0.00 | 0.00 | 37 | 1012.9 |
| 20260508110058 | 11 | 98 | 1.6 | 3.2 | 0.00 | 0.00 | 0.00 | 37 | 1012.9 |
| 20260508110001 | 11 | 98 | 1.6 | 3.2 | 0.00 | 0.00 | 0.00 | 37 | 1012.9 |
| 20260508105858 | 12 | 101 | 1.6 | 1.6 | 0.00 | 0.00 | 0.00 | 36 | 1012.8 |
| 20260508105759 | 12 | 101 | 0.0 | 1.6 | 0.00 | 0.00 | 0.00 | 36 | 1012.9 |
| 20260508105658 | 12 | 101 | 0.0 | 1.6 | 0.00 | 0.00 | 0.00 | 36 | 1012.8 |
| 20260508105559 | 12 | 101 | 0.0 | 1.6 | 0.00 | 0.00 | 0.00 | 35 | 1012.8 |
| 20260508105500 | 12 | 101 | 0.0 | 1.6 | 0.00 | 0.00 | 0.00 | 35 | 1012.8 |
| 20260508105258 | 12 | 101 | 0.0 | 1.6 | 0.00 | 0.00 | 0.00 | 35 | 1012.8 |
| 20260508105159 | 12 | 101 | 0.0 | 1.6 | 0.00 | 0.00 | 0.00 | 35 | 1012.8 |
| 20260508105058 | 12 | 101 | 1.6 | 3.2 | 0.00 | 0.00 | 0.00 | 35 | 1012.8 |
| 20260508104959 | 12 | 101 | 1.6 | 3.2 | 0.00 | 0.00 | 0.00 | 35 | 1012.8 |
| 20260508104858 | 12 | 101 | 0.0 | 3.2 | 0.00 | 0.00 | 0.00 | 35 | 1012.8 |
| 20260508104758 | 12 | 101 | 0.0 | 3.2 | 0.00 | 0.00 | 0.00 | 35 | 1012.7 |
| 20260508104658 | 12 | 101 | 1.6 | 3.2 | 0.00 | 0.00 | 0.00 | 35 | 1012.8 |
| 20260508104559 | 12 | 101 | 0.0 | 3.2 | 0.00 | 0.00 | 0.00 | 35 | 1012.7 |
| 20260508104400 | 12 | 101 | 0.0 | 4.8 | 0.00 | 0.00 | 0.00 | 34 | 1012.8 |
| 20260508104258 | 12 | 101 | 1.6 | 4.8 | 0.00 | 0.00 | 0.00 | 33 | 1012.7 |
| 20260508104159 | 12 | 96 | 3.2 | 4.8 | 0.00 | 0.00 | 0.00 | 34 | 1012.7 |
| 20260508104058 | 12 | 82 | 0.0 | 4.8 | 0.00 | 0.00 | 0.00 | 34 | 1012.7 |
| 20260508103959 | 12 | 77 | 1.6 | 4.8 | 0.00 | 0.00 | 0.00 | 34 | 1012.7 |
| 20260508103758 | 12 | 77 | 3.2 | 4.8 | 0.00 | 0.00 | 0.00 | 35 | 1012.7 |
| 20260508103559 | 12 | 77 | 3.2 | 4.8 | 0.00 | 0.00 | 0.00 | 35 | 1012.7 |
| 20260508103459 | 12 | 76 | 3.2 | 4.8 | 0.00 | 0.00 | 0.00 | 35 | 1012.6 |
| 20260508103358 | 12 | 74 | 3.2 | 3.2 | 0.00 | 0.00 | 0.00 | 35 | 1012.7 |
| 20260508103259 | 12 | 74 | 3.2 | 3.2 | 0.00 | 0.00 | 0.00 | 35 | 1012.7 |
| 20260508103159 | 12 | 74 | 0.0 | 3.2 | 0.00 | 0.00 | 0.00 | 35 | 1012.7 |
| 20260508103058 | 12 | 74 | 3.2 | 3.2 | 0.00 | 0.00 | 0.00 | 35 | 1012.6 |
| 20260508102858 | 12 | 74 | 1.6 | 3.2 | 0.00 | 0.00 | 0.00 | 34 | 1012.6 |
| 20260508102758 | 12 | 75 | 3.2 | 3.2 | 0.00 | 0.00 | 0.00 | 35 | 1012.7 |
| 20260508102659 | 12 | 75 | 0.0 | 3.2 | 0.00 | 0.00 | 0.00 | 34 | 1012.7 |
| 20260508102558 | 12 | 75 | 1.6 | 3.2 | 0.00 | 0.00 | 0.00 | 34 | 1012.7 |
| 20260508102501 | 12 | 76 | 1.6 | 3.2 | 0.00 | 0.00 | 0.00 | 35 | 1012.7 |
| 20260508102358 | 12 | 83 | 0.0 | 3.2 | 0.00 | 0.00 | 0.00 | 35 | 1012.7 |
| 20260508102158 | 12 | 75 | 1.6 | 3.2 | 0.00 | 0.00 | 0.00 | 34 | 1012.6 |
| 20260508102059 | 12 | 55 | 1.6 | 1.6 | 0.00 | 0.00 | 0.00 | 35 | 1012.7 |
| 20260508101958 | 12 | 55 | 1.6 | 1.6 | 0.00 | 0.00 | 0.00 | 35 | 1012.7 |
| 20260508101858 | 12 | 55 | 0.0 | 1.6 | 0.00 | 0.00 | 0.00 | 34 | 1012.7 |
| 20260508101759 | 12 | 55 | 0.0 | 1.6 | 0.00 | 0.00 | 0.00 | 35 | 1012.6 |
| 20260508101658 | 12 | 55 | 0.0 | 1.6 | 0.00 | 0.00 | 0.00 | 35 | 1012.7 |
| 20260508101500 | 12 | 55 | 0.0 | 1.6 | 0.00 | 0.00 | 0.00 | 35 | 1012.6 |
| 20260508101359 | 12 | 55 | 0.0 | 1.6 | 0.00 | 0.00 | 0.00 | 34 | 1012.6 |
| 20260508101259 | 12 | 55 | 0.0 | 3.2 | 0.00 | 0.00 | 0.00 | 34 | 1012.6 |
| 20260508101159 | 12 | 55 | 0.0 | 3.2 | 0.00 | 0.00 | 0.00 | 34 | 1012.6 |
| 20260508101058 | 12 | 55 | 0.0 | 3.2 | 0.00 | 0.00 | 0.00 | 34 | 1012.6 |
| 20260508100958 | 12 | 55 | 0.0 | 3.2 | 0.00 | 0.00 | 0.00 | 33 | 1012.6 |
| 20260508100859 | 12 | 55 | 0.0 | 3.2 | 0.00 | 0.00 | 0.00 | 35 | 1012.6 |
| 20260508100758 | 12 | 55 | 0.0 | 4.8 | 0.00 | 0.00 | 0.00 | 35 | 1012.6 |
| 20260508100658 | 12 | 55 | 0.0 | 4.8 | 0.00 | 0.00 | 0.00 | 35 | 1012.6 |
| 20260508100559 | 12 | 55 | 1.6 | 4.8 | 0.00 | 0.00 | 0.00 | 35 | 1012.6 |
| 20260508100358 | 12 | 55 | 3.2 | 4.8 | 0.00 | 0.00 | 0.00 | 34 | 1012.6 |
| 20260508100258 | 12 | 55 | 1.6 | 4.8 | 0.00 | 0.00 | 0.00 | 34 | 1012.6 |
| 20260508100159 | 12 | 55 | 1.6 | 4.8 | 0.00 | 0.00 | 0.00 | 35 | 1012.6 |
| 20260508100059 | 12 | 55 | 3.2 | 4.8 | 0.00 | 0.00 | 0.00 | 35 | 1012.6 |
| 20260508095859 | 12 | 101 | 3.2 | 4.8 | 0.00 | 0.00 | 0.00 | 35 | 1012.6 |
| 20260508095758 | 12 | 121 | 1.6 | 4.8 | 0.00 | 0.00 | 0.00 | 35 | 1012.7 |
| 20260508095558 | 12 | 76 | 1.6 | 4.8 | 0.00 | 0.00 | 0.00 | 34 | 1012.6 |
| 20260508095500 | 12 | 76 | 1.6 | 4.8 | 0.00 | 0.00 | 0.00 | 34 | 1012.6 |
| 20260508095358 | 12 | 77 | 1.6 | 4.8 | 0.00 | 0.00 | 0.00 | 34 | 1012.6 |
| 20260508095258 | 12 | 78 | 3.2 | 4.8 | 0.00 | 0.00 | 0.00 | 35 | 1012.7 |
| 20260508095158 | 12 | 78 | 1.6 | 4.8 | 0.00 | 0.00 | 0.00 | 35 | 1012.6 |
| 20260508094958 | 12 | 38 | 0.0 | 4.8 | 0.00 | 0.00 | 0.00 | 35 | 1012.6 |
| 20260508094858 | 12 | 38 | 0.0 | 4.8 | 0.00 | 0.00 | 0.00 | 34 | 1012.6 |
| 20260508094758 | 12 | 38 | 3.2 | 4.8 | 0.00 | 0.00 | 0.00 | 34 | 1012.5 |
| 20260508094659 | 12 | 69 | 1.6 | 4.8 | 0.00 | 0.00 | 0.00 | 34 | 1012.6 |
| 20260508094558 | 12 | 98 | 3.2 | 4.8 | 0.00 | 0.00 | 0.00 | 34 | 1012.6 |
| 20260508094459 | 12 | 112 | 3.2 | 3.2 | 0.00 | 0.00 | 0.00 | 33 | 1012.6 |
| 20260508094357 | 12 | 76 | 0.0 | 3.2 | 0.00 | 0.00 | 0.00 | 33 | 1012.6 |
| 20260508094158 | 12 | 75 | 0.0 | 3.2 | 0.00 | 0.00 | 0.00 | 34 | 1012.6 |
| 20260508094058 | 12 | 75 | 0.0 | 3.2 | 0.00 | 0.00 | 0.00 | 35 | 1012.6 |
| 20260508093959 | 12 | 75 | 0.0 | 3.2 | 0.00 | 0.00 | 0.00 | 33 | 1012.6 |
| 20260508093758 | 12 | 62 | 1.6 | 3.2 | 0.00 | 0.00 | 0.00 | 33 | 1012.6 |
| 20260508093658 | 12 | 80 | 0.0 | 0.0 | 0.00 | 0.00 | 0.00 | 35 | 1012.5 |
| 20260508093358 | 12 | 75 | 0.0 | 1.6 | 0.00 | 0.00 | 0.00 | 35 | 1012.5 |
| 20260508093258 | 12 | 82 | 0.0 | 3.2 | 0.00 | 0.00 | 0.00 | 35 | 1012.5 |
| 20260508092959 | 12 | 85 | 0.0 | 6.4 | 0.00 | 0.00 | 0.00 | 35 | 1012.6 |
| 20260508092658 | 12 | 85 | 0.0 | 6.4 | 0.00 | 0.00 | 0.00 | 35 | 1012.6 |
| 20260508092559 | 12 | 85 | 0.0 | 6.4 | 0.00 | 0.00 | 0.00 | 35 | 1012.6 |
| 20260508092458 | 12 | 85 | 1.6 | 6.4 | 0.00 | 0.00 | 0.00 | 35 | 1012.6 |
| 20260508092400 | 12 | 86 | 1.6 | 6.4 | 0.00 | 0.00 | 0.00 | 35 | 1012.6 |
| 20260508092258 | 12 | 85 | 3.2 | 8.0 | 0.00 | 0.00 | 0.00 | 36 | 1012.6 |
| 20260508092159 | 12 | 78 | 4.8 | 6.4 | 0.00 | 0.00 | 0.00 | 36 | 1012.6 |
| 20260508092058 | 12 | 78 | 3.2 | 4.8 | 0.00 | 0.00 | 0.00 | 35 | 1012.6 |
| 20260508092000 | 12 | 70 | 1.6 | 4.8 | 0.00 | 0.00 | 0.00 | 35 | 1012.7 |
| 20260508091858 | 12 | 70 | 1.6 | 4.8 | 0.00 | 0.00 | 0.00 | 36 | 1012.7 |
| 20260508091758 | 12 | 70 | 3.2 | 3.2 | 0.00 | 0.00 | 0.00 | 37 | 1012.7 |
| 20260508091658 | 12 | 65 | 1.6 | 3.2 | 0.00 | 0.00 | 0.00 | 37 | 1012.7 |
| 20260508091559 | 12 | 65 | 3.2 | 3.2 | 0.00 | 0.00 | 0.00 | 37 | 1012.7 |
| 20260508091458 | 12 | 65 | 0.0 | 3.2 | 0.00 | 0.00 | 0.00 | 37 | 1012.7 |
| 20260508091359 | 12 | 65 | 3.2 | 3.2 | 0.00 | 0.00 | 0.00 | 38 | 1012.6 |
| 20260508091258 | 12 | 69 | 3.2 | 3.2 | 0.00 | 0.00 | 0.00 | 38 | 1012.7 |
| 20260508091158 | 12 | 65 | 1.6 | 3.2 | 0.00 | 0.00 | 0.00 | 38 | 1012.7 |
| 20260508091059 | 12 | 66 | 1.6 | 3.2 | 0.00 | 0.00 | 0.00 | 38 | 1012.7 |
| 20260508090959 | 12 | 68 | 0.0 | 3.2 | 0.00 | 0.00 | 0.00 | 37 | 1012.7 |
| 20260508090759 | 12 | 68 | 1.6 | 3.2 | 0.00 | 0.00 | 0.00 | 38 | 1012.6 |
| 20260508090659 | 12 | 63 | 1.6 | 3.2 | 0.00 | 0.00 | 0.00 | 38 | 1012.6 |
| 20260508090500 | 12 | 49 | 0.0 | 3.2 | 0.00 | 0.00 | 0.00 | 38 | 1012.6 |
| 20260508090359 | 12 | 49 | 0.0 | 3.2 | 0.00 | 0.00 | 0.00 | 38 | 1012.6 |
| 20260508090258 | 12 | 49 | 1.6 | 3.2 | 0.00 | 0.00 | 0.00 | 39 | 1012.6 |
| 20260508090158 | 12 | 49 | 1.6 | 4.8 | 0.00 | 0.00 | 0.00 | 38 | 1012.6 |
| 20260508090058 | 12 | 49 | 0.0 | 4.8 | 0.00 | 0.00 | 0.00 | 39 | 1012.6 |
| 20260508085859 | 12 | 49 | 0.0 | 4.8 | 0.00 | 0.00 | 0.00 | 39 | 1012.6 |
| 20260508085558 | 12 | 49 | 0.0 | 4.8 | 0.00 | 0.00 | 0.00 | 40 | 1012.6 |
| 20260508085458 | 12 | 49 | 1.6 | 4.8 | 0.00 | 0.00 | 0.00 | 40 | 1012.6 |
| 20260508085358 | 12 | 59 | 1.6 | 4.8 | 0.00 | 0.00 | 0.00 | 40 | 1012.6 |
| 20260508085258 | 12 | 68 | 3.2 | 4.8 | 0.00 | 0.00 | 0.00 | 41 | 1012.7 |
| 20260508085158 | 12 | 75 | 3.2 | 3.2 | 0.00 | 0.00 | 0.00 | 41 | 1012.7 |
| 20260508084859 | 12 | 77 | 0.0 | 3.2 | 0.00 | 0.00 | 0.00 | 41 | 1012.7 |
| 20260508084758 | 12 | 77 | 1.6 | 3.2 | 0.00 | 0.00 | 0.00 | 41 | 1012.7 |
| 20260508084659 | 12 | 77 | 1.6 | 3.2 | 0.00 | 0.00 | 0.00 | 39 | 1012.7 |
| 20260508084558 | 12 | 74 | 1.6 | 3.2 | 0.00 | 0.00 | 0.00 | 41 | 1012.7 |
| 20260508084459 | 12 | 74 | 1.6 | 3.2 | 0.00 | 0.00 | 0.00 | 40 | 1012.7 |
| 20260508084358 | 12 | 74 | 0.0 | 3.2 | 0.00 | 0.00 | 0.00 | 40 | 1012.7 |
| 20260508084258 | 12 | 74 | 0.0 | 3.2 | 0.00 | 0.00 | 0.00 | 40 | 1012.7 |
| 20260508084058 | 12 | 74 | 1.6 | 3.2 | 0.00 | 0.00 | 0.00 | 39 | 1012.7 |
| 20260508083958 | 12 | 74 | 0.0 | 3.2 | 0.00 | 0.00 | 0.00 | 39 | 1012.7 |
| 20260508083900 | 12 | 74 | 1.6 | 3.2 | 0.00 | 0.00 | 0.00 | 39 | 1012.7 |
| 20260508083659 | 12 | 78 | 1.6 | 3.2 | 0.00 | 0.00 | 0.00 | 39 | 1012.7 |
| 20260508083459 | 12 | 78 | 0.0 | 4.8 | 0.00 | 0.00 | 0.00 | 38 | 1012.7 |
| 20260508083358 | 12 | 78 | 0.0 | 4.8 | 0.00 | 0.00 | 0.00 | 38 | 1012.7 |
| 20260508083259 | 12 | 78 | 0.0 | 4.8 | 0.00 | 0.00 | 0.00 | 38 | 1012.7 |
| 20260508083200 | 12 | 78 | 0.0 | 4.8 | 0.00 | 0.00 | 0.00 | 38 | 1012.7 |
| 20260508083058 | 12 | 66 | 0.0 | 4.8 | 0.00 | 0.00 | 0.00 | 39 | 1012.7 |
| 20260508082959 | 12 | 89 | 1.6 | 4.8 | 0.00 | 0.00 | 0.00 | 39 | 1012.7 |
| 20260508082758 | 12 | 89 | 3.2 | 4.8 | 0.00 | 0.00 | 0.00 | 38 | 1012.7 |
| 20260508082658 | 12 | 92 | 1.6 | 4.8 | 0.00 | 0.00 | 0.00 | 38 | 1012.7 |
| 20260508082558 | 12 | 121 | 1.6 | 3.2 | 0.00 | 0.00 | 0.00 | 37 | 1012.7 |
| 20260508082459 | 12 | 121 | 1.6 | 3.2 | 0.00 | 0.00 | 0.00 | 37 | 1012.7 |
| 20260508082358 | 12 | 121 | 1.6 | 3.2 | 0.00 | 0.00 | 0.00 | 37 | 1012.7 |
| 20260508082300 | 12 | 121 | 1.6 | 4.8 | 0.00 | 0.00 | 0.00 | 38 | 1012.7 |
| 20260508082200 | 12 | 121 | 1.6 | 4.8 | 0.00 | 0.00 | 0.00 | 38 | 1012.8 |
| 20260508082058 | 12 | 121 | 0.0 | 4.8 | 0.00 | 0.00 | 0.00 | 38 | 1012.8 |
| 20260508081859 | 12 | 121 | 0.0 | 4.8 | 0.00 | 0.00 | 0.00 | 37 | 1012.7 |
| 20260508081658 | 12 | 123 | 3.2 | 4.8 | 0.00 | 0.00 | 0.00 | 37 | 1012.7 |
| 20260508081358 | 13 | 121 | 1.6 | 3.2 | 0.00 | 0.00 | 0.00 | 38 | 1012.7 |
| 20260508081258 | 13 | 69 | 1.6 | 3.2 | 0.00 | 0.00 | 0.00 | 37 | 1012.6 |
| 20260508081058 | 13 | 69 | 3.2 | 3.2 | 0.00 | 0.00 | 0.00 | 38 | 1012.7 |
| 20260508080959 | 13 | 69 | 0.0 | 0.0 | 0.00 | 0.00 | 0.00 | 38 | 1012.7 |
| 20260508080859 | 13 | 69 | 0.0 | 0.0 | 0.00 | 0.00 | 0.00 | 38 | 1012.7 |
| 20260508080757 | 13 | 69 | 0.0 | 0.0 | 0.00 | 0.00 | 0.00 | 38 | 1012.7 |
| 20260508080658 | 13 | 69 | 0.0 | 0.0 | 0.00 | 0.00 | 0.00 | 38 | 1012.6 |
| 20260508080459 | 13 | 69 | 0.0 | 0.0 | 0.00 | 0.00 | 0.00 | 39 | 1012.6 |
| 20260508080359 | 13 | 69 | 0.0 | 1.6 | 0.00 | 0.00 | 0.00 | 39 | 1012.7 |
| 20260508080259 | 13 | 80 | 0.0 | 3.2 | 0.00 | 0.00 | 0.00 | 39 | 1012.7 |
| 20260508080159 | 13 | 91 | 0.0 | 3.2 | 0.00 | 0.00 | 0.00 | 39 | 1012.7 |
| 20260508080058 | 13 | 91 | 0.0 | 3.2 | 0.00 | 0.00 | 0.00 | 38 | 1012.6 |
| 20260508080001 | 13 | 91 | 0.0 | 3.2 | 0.00 | 0.00 | 0.00 | 37 | 1012.6 |
| 20260508075858 | 13 | 91 | 0.0 | 3.2 | 0.00 | 0.00 | 0.00 | 37 | 1012.5 |
| 20260508075758 | 13 | 91 | 0.0 | 3.2 | 0.00 | 0.00 | 0.00 | 37 | 1012.5 |
| 20260508075558 | 13 | 91 | 0.0 | 6.4 | 0.00 | 0.00 | 0.00 | 37 | 1012.6 |
| 20260508075500 | 13 | 91 | 0.0 | 6.4 | 0.00 | 0.00 | 0.00 | 37 | 1012.5 |
| 20260508075357 | 13 | 92 | 1.6 | 6.4 | 0.00 | 0.00 | 0.00 | 37 | 1012.5 |
| 20260508075258 | 13 | 94 | 1.6 | 6.4 | 0.00 | 0.00 | 0.00 | 37 | 1012.5 |
| 20260508075158 | 13 | 94 | 0.0 | 6.4 | 0.00 | 0.00 | 0.00 | 37 | 1012.5 |
| 20260508074958 | 13 | 84 | 0.0 | 6.4 | 0.00 | 0.00 | 0.00 | 36 | 1012.5 |
| 20260508074858 | 13 | 78 | 1.6 | 6.4 | 0.00 | 0.00 | 0.00 | 36 | 1012.5 |
| 20260508074757 | 13 | 76 | 3.2 | 6.4 | 0.00 | 0.00 | 0.00 | 36 | 1012.5 |
| 20260508074658 | 13 | 78 | 4.8 | 8.0 | 0.00 | 0.00 | 0.00 | 35 | 1012.4 |
| 20260508074459 | 13 | 81 | 1.6 | 4.8 | 0.00 | 0.00 | 0.00 | 36 | 1012.5 |
| 20260508074359 | 13 | 80 | 0.0 | 4.8 | 0.00 | 0.00 | 0.00 | 36 | 1012.5 |
| 20260508074258 | 13 | 80 | 1.6 | 4.8 | 0.00 | 0.00 | 0.00 | 37 | 1012.5 |
| 20260508074158 | 13 | 80 | 1.6 | 4.8 | 0.00 | 0.00 | 0.00 | 37 | 1012.5 |
| 20260508073958 | 13 | 80 | 3.2 | 4.8 | 0.00 | 0.00 | 0.00 | 36 | 1012.5 |
| 20260508073857 | 13 | 76 | 1.6 | 6.4 | 0.00 | 0.00 | 0.00 | 37 | 1012.5 |
| 20260508073558 | 13 | 82 | 3.2 | 6.4 | 0.00 | 0.00 | 0.00 | 37 | 1012.5 |
| 20260508073459 | 13 | 77 | 3.2 | 6.4 | 0.00 | 0.00 | 0.00 | 37 | 1012.5 |
| 20260508073358 | 13 | 80 | 4.8 | 6.4 | 0.00 | 0.00 | 0.00 | 37 | 1012.5 |
| 20260508073258 | 13 | 74 | 4.8 | 6.4 | 0.00 | 0.00 | 0.00 | 37 | 1012.5 |
| 20260508073158 | 13 | 62 | 3.2 | 6.4 | 0.00 | 0.00 | 0.00 | 37 | 1012.5 |
| 20260508073058 | 13 | 74 | 3.2 | 6.4 | 0.00 | 0.00 | 0.00 | 37 | 1012.5 |
| 20260508072958 | 13 | 76 | 3.2 | 6.4 | 0.00 | 0.00 | 0.00 | 38 | 1012.5 |
| 20260508072658 | 13 | 76 | 1.6 | 6.4 | 0.00 | 0.00 | 0.00 | 38 | 1012.5 |
| 20260508072558 | 13 | 71 | 3.2 | 6.4 | 0.00 | 0.00 | 0.00 | 38 | 1012.6 |
| 20260508072358 | 13 | 75 | 3.2 | 6.4 | 0.00 | 0.00 | 0.00 | 37 | 1012.6 |
| 20260508072257 | 13 | 73 | 0.0 | 6.4 | 0.00 | 0.00 | 0.00 | 37 | 1012.6 |
| 20260508072159 | 13 | 73 | 1.6 | 6.4 | 0.00 | 0.00 | 0.00 | 37 | 1012.6 |
| 20260508072058 | 13 | 72 | 1.6 | 6.4 | 0.00 | 0.00 | 0.00 | 37 | 1012.6 |
| 20260508071958 | 13 | 74 | 4.8 | 6.4 | 0.00 | 0.00 | 0.00 | 37 | 1012.6 |
| 20260508071858 | 13 | 81 | 4.8 | 4.8 | 0.00 | 0.00 | 0.00 | 37 | 1012.6 |
| 20260508071758 | 13 | 87 | 1.6 | 4.8 | 0.00 | 0.00 | 0.00 | 37 | 1012.6 |
| 20260508071658 | 13 | 87 | 1.6 | 4.8 | 0.00 | 0.00 | 0.00 | 37 | 1012.6 |
| 20260508071558 | 13 | 87 | 1.6 | 4.8 | 0.00 | 0.00 | 0.00 | 37 | 1012.6 |
| 20260508071459 | 13 | 87 | 0.0 | 4.8 | 0.00 | 0.00 | 0.00 | 37 | 1012.6 |
| 20260508071359 | 13 | 87 | 1.6 | 4.8 | 0.00 | 0.00 | 0.00 | 37 | 1012.6 |
| 20260508071259 | 13 | 90 | 3.2 | 4.8 | 0.00 | 0.00 | 0.00 | 37 | 1012.5 |
| 20260508071158 | 13 | 88 | 3.2 | 4.8 | 0.00 | 0.00 | 0.00 | 37 | 1012.6 |
| 20260508071057 | 13 | 83 | 1.6 | 4.8 | 0.00 | 0.00 | 0.00 | 37 | 1012.5 |
| 20260508070959 | 13 | 78 | 0.0 | 4.8 | 0.00 | 0.00 | 0.00 | 37 | 1012.6 |
| 20260508070858 | 13 | 76 | 3.2 | 4.8 | 0.00 | 0.00 | 0.00 | 37 | 1012.6 |
| 20260508070757 | 13 | 71 | 4.8 | 4.8 | 0.00 | 0.00 | 0.00 | 37 | 1012.6 |
| 20260508070658 | 13 | 78 | 3.2 | 4.8 | 0.00 | 0.00 | 0.00 | 37 | 1012.6 |
| 20260508070459 | 13 | 77 | 1.6 | 4.8 | 0.00 | 0.00 | 0.00 | 37 | 1012.6 |
| 20260508070358 | 13 | 71 | 3.2 | 4.8 | 0.00 | 0.00 | 0.00 | 37 | 1012.5 |
| 20260508070159 | 13 | 71 | 3.2 | 4.8 | 0.00 | 0.00 | 0.00 | 38 | 1012.5 |
| 20260508070058 | 13 | 71 | 3.2 | 4.8 | 0.00 | 0.00 | 0.00 | 37 | 1012.6 |
| 20260508070001 | 13 | 75 | 3.2 | 4.8 | 0.00 | 0.00 | 0.00 | 37 | 1012.6 |
| 20260508065858 | 13 | 68 | 4.8 | 4.8 | 0.00 | 0.00 | 0.00 | 37 | 1012.6 |
| 20260508065759 | 13 | 73 | 3.2 | 4.8 | 0.00 | 0.00 | 0.00 | 37 | 1012.6 |
| 20260508065658 | 13 | 88 | 3.2 | 4.8 | 0.00 | 0.00 | 0.00 | 37 | 1012.5 |
| 20260508065558 | 13 | 84 | 3.2 | 4.8 | 0.00 | 0.00 | 0.00 | 37 | 1012.6 |
| 20260508065459 | 13 | 87 | 1.6 | 4.8 | 0.00 | 0.00 | 0.00 | 36 | 1012.5 |
| 20260508065359 | 13 | 76 | 3.2 | 4.8 | 0.00 | 0.00 | 0.00 | 37 | 1012.6 |
| 20260508065258 | 13 | 74 | 1.6 | 3.2 | 0.00 | 0.00 | 0.00 | 37 | 1012.6 |
| 20260508065159 | 14 | 74 | 1.6 | 3.2 | 0.00 | 0.00 | 0.00 | 38 | 1012.6 |
| 20260508065059 | 14 | 74 | 1.6 | 3.2 | 0.00 | 0.00 | 0.00 | 37 | 1012.6 |
| 20260508064958 | 14 | 74 | 1.6 | 3.2 | 0.00 | 0.00 | 0.00 | 37 | 1012.6 |
| 20260508064858 | 14 | 74 | 1.6 | 3.2 | 0.00 | 0.00 | 0.00 | 37 | 1012.5 |
| 20260508064758 | 14 | 67 | 1.6 | 4.8 | 0.00 | 0.00 | 0.00 | 37 | 1012.5 |
| 20260508064558 | 14 | 67 | 0.0 | 4.8 | 0.00 | 0.00 | 0.00 | 37 | 1012.6 |
| 20260508064459 | 14 | 67 | 0.0 | 4.8 | 0.00 | 0.00 | 0.00 | 37 | 1012.5 |
| 20260508064358 | 14 | 67 | 1.6 | 4.8 | 0.00 | 0.00 | 0.00 | 37 | 1012.6 |
| 20260508064257 | 14 | 67 | 1.6 | 4.8 | 0.00 | 0.00 | 0.00 | 37 | 1012.5 |
| 20260508064158 | 14 | 59 | 3.2 | 4.8 | 0.00 | 0.00 | 0.00 | 37 | 1012.5 |
| 20260508064057 | 14 | 56 | 1.6 | 4.8 | 0.00 | 0.00 | 0.00 | 37 | 1012.4 |
| 20260508063958 | 14 | 63 | 3.2 | 8.0 | 0.00 | 0.00 | 0.00 | 37 | 1012.5 |
| 20260508063758 | 14 | 65 | 1.6 | 8.0 | 0.00 | 0.00 | 0.00 | 37 | 1012.4 |
| 20260508063558 | 14 | 51 | 1.6 | 8.0 | 0.00 | 0.00 | 0.00 | 37 | 1012.4 |
| 20260508063500 | 14 | 53 | 1.6 | 8.0 | 0.00 | 0.00 | 0.00 | 36 | 1012.4 |
| 20260508063357 | 14 | 63 | 1.6 | 8.0 | 0.00 | 0.00 | 0.00 | 36 | 1012.4 |
| 20260508063258 | 14 | 61 | 4.8 | 8.0 | 0.00 | 0.00 | 0.00 | 36 | 1012.4 |
| 20260508063157 | 14 | 80 | 3.2 | 8.0 | 0.00 | 0.00 | 0.00 | 36 | 1012.4 |
| 20260508062958 | 14 | 74 | 1.6 | 3.2 | 0.00 | 0.00 | 0.00 | 36 | 1012.5 |
| 20260508062858 | 14 | 76 | 1.6 | 3.2 | 0.00 | 0.00 | 0.00 | 36 | 1012.4 |
| 20260508062759 | 14 | 53 | 1.6 | 3.2 | 0.00 | 0.00 | 0.00 | 36 | 1012.5 |
| 20260508062558 | 14 | 53 | 1.6 | 3.2 | 0.00 | 0.00 | 0.00 | 35 | 1012.4 |
| 20260508062459 | 14 | 53 | 0.0 | 1.6 | 0.00 | 0.00 | 0.00 | 35 | 1012.4 |
| 20260508062359 | 14 | 53 | 0.0 | 1.6 | 0.00 | 0.00 | 0.00 | 35 | 1012.4 |
| 20260508062259 | 14 | 53 | 0.0 | 1.6 | 0.00 | 0.00 | 0.00 | 35 | 1012.4 |
| 20260508062157 | 14 | 53 | 0.0 | 1.6 | 0.00 | 0.00 | 0.00 | 36 | 1012.4 |
| 20260508062101 | 14 | 53 | 0.0 | 1.6 | 0.00 | 0.00 | 0.00 | 35 | 1012.4 |
| 20260508061959 | 14 | 53 | 0.0 | 1.6 | 0.00 | 0.00 | 0.00 | 35 | 1012.4 |
| 20260508061859 | 14 | 53 | 0.0 | 1.6 | 0.00 | 0.00 | 0.00 | 35 | 1012.3 |
| 20260508061759 | 14 | 53 | 0.0 | 1.6 | 0.00 | 0.00 | 0.00 | 35 | 1012.4 |
| 20260508061658 | 14 | 53 | 1.6 | 1.6 | 0.00 | 0.00 | 0.00 | 35 | 1012.4 |
| 20260508061558 | 14 | 53 | 0.0 | 1.6 | 0.00 | 0.00 | 0.00 | 35 | 1012.4 |
| 20260508061459 | 14 | 53 | 0.0 | 1.6 | 0.00 | 0.00 | 0.00 | 36 | 1012.4 |
| 20260508061358 | 14 | 53 | 0.0 | 3.2 | 0.00 | 0.00 | 0.00 | 36 | 1012.4 |
| 20260508061258 | 14 | 53 | 0.0 | 3.2 | 0.00 | 0.00 | 0.00 | 36 | 1012.3 |
| 20260508061159 | 14 | 53 | 0.0 | 3.2 | 0.00 | 0.00 | 0.00 | 35 | 1012.3 |
| 20260508061058 | 14 | 53 | 0.0 | 4.8 | 0.00 | 0.00 | 0.00 | 36 | 1012.3 |
| 20260508060958 | 14 | 53 | 0.0 | 4.8 | 0.00 | 0.00 | 0.00 | 37 | 1012.3 |
| 20260508060857 | 14 | 53 | 1.6 | 4.8 | 0.00 | 0.00 | 0.00 | 37 | 1012.3 |
| 20260508060659 | 14 | 53 | 1.6 | 4.8 | 0.00 | 0.00 | 0.00 | 37 | 1012.3 |
| 20260508060558 | 14 | 53 | 0.0 | 4.8 | 0.00 | 0.00 | 0.00 | 37 | 1012.3 |
| 20260508060459 | 14 | 53 | 1.6 | 4.8 | 0.00 | 0.00 | 0.00 | 36 | 1012.2 |
| 20260508060359 | 14 | 53 | 1.6 | 4.8 | 0.00 | 0.00 | 0.00 | 37 | 1012.3 |
| 20260508060257 | 14 | 53 | 1.6 | 4.8 | 0.00 | 0.00 | 0.00 | 36 | 1012.3 |
| 20260508060159 | 14 | 53 | 3.2 | 4.8 | 0.00 | 0.00 | 0.00 | 36 | 1012.3 |
| 20260508060005 | 15 | 53 | 1.6 | 3.2 | 0.00 | 0.00 | 0.00 | 36 | 1012.3 |
| 20260508055859 | 15 | 53 | 1.6 | 3.2 | 0.00 | 0.00 | 0.00 | 36 | 1012.3 |
| 20260508055758 | 15 | 53 | 1.6 | 3.2 | 0.00 | 0.00 | 0.00 | 35 | 1012.3 |
| 20260508055658 | 15 | 53 | 1.6 | 3.2 | 0.00 | 0.00 | 0.00 | 35 | 1012.3 |
| 20260508055558 | 15 | 53 | 1.6 | 3.2 | 0.00 | 0.00 | 0.00 | 35 | 1012.3 |
| 20260508055459 | 15 | 53 | 1.6 | 3.2 | 0.00 | 0.00 | 0.00 | 35 | 1012.3 |
| 20260508055359 | 15 | 53 | 1.6 | 3.2 | 0.00 | 0.00 | 0.00 | 35 | 1012.3 |
| 20260508055259 | 15 | 53 | 0.0 | 1.6 | 0.00 | 0.00 | 0.00 | 35 | 1012.4 |
| 20260508055158 | 15 | 53 | 0.0 | 1.6 | 0.00 | 0.00 | 0.00 | 35 | 1012.3 |
| 20260508055057 | 15 | 53 | 0.0 | 1.6 | 0.00 | 0.00 | 0.00 | 35 | 1012.3 |
| 20260508054959 | 15 | 53 | 0.0 | 1.6 | 0.00 | 0.00 | 0.00 | 35 | 1012.3 |
| 20260508054859 | 15 | 53 | 0.0 | 1.6 | 0.00 | 0.00 | 0.00 | 35 | 1012.3 |
| 20260508054758 | 15 | 53 | 0.0 | 1.6 | 0.00 | 0.00 | 0.00 | 35 | 1012.3 |
| 20260508054558 | 15 | 53 | 0.0 | 1.6 | 0.00 | 0.00 | 0.00 | 34 | 1012.3 |
| 20260508054459 | 15 | 53 | 0.0 | 1.6 | 0.00 | 0.00 | 0.00 | 34 | 1012.3 |
| 20260508054359 | 15 | 53 | 0.0 | 1.6 | 0.00 | 0.00 | 0.00 | 34 | 1012.3 |
| 20260508054059 | 15 | 53 | 0.0 | 1.6 | 0.00 | 0.00 | 0.00 | 33 | 1012.3 |
| 20260508054000 | 15 | 53 | 0.0 | 1.6 | 0.00 | 0.00 | 0.00 | 34 | 1012.3 |
| 20260508053859 | 15 | 53 | 1.6 | 1.6 | 0.00 | 0.00 | 0.00 | 34 | 1012.3 |
| 20260508053759 | 15 | 53 | 0.0 | 1.6 | 0.00 | 0.00 | 0.00 | 34 | 1012.3 |
| 20260508053659 | 15 | 53 | 0.0 | 1.6 | 0.00 | 0.00 | 0.00 | 33 | 1012.3 |
| 20260508053558 | 15 | 53 | 0.0 | 3.2 | 0.00 | 0.00 | 0.00 | 33 | 1012.3 |
| 20260508053359 | 15 | 53 | 0.0 | 3.2 | 0.00 | 0.00 | 0.00 | 34 | 1012.3 |
| 20260508053259 | 15 | 53 | 1.6 | 3.2 | 0.00 | 0.00 | 0.00 | 34 | 1012.3 |
| 20260508053159 | 15 | 53 | 0.0 | 3.2 | 0.00 | 0.00 | 0.00 | 33 | 1012.3 |
| 20260508053100 | 15 | 53 | 0.0 | 3.2 | 0.00 | 0.00 | 0.00 | 33 | 1012.3 |
| 20260508052857 | 15 | 53 | 0.0 | 3.2 | 0.00 | 0.00 | 0.00 | 32 | 1012.3 |
| 20260508052658 | 15 | 53 | 1.6 | 3.2 | 0.00 | 0.00 | 0.00 | 32 | 1012.2 |
| 20260508052558 | 15 | 53 | 1.6 | 3.2 | 0.00 | 0.00 | 0.00 | 32 | 1012.3 |
| 20260508052358 | 15 | 53 | 1.6 | 3.2 | 0.00 | 0.00 | 0.00 | 31 | 1012.2 |
| 20260508052258 | 15 | 53 | 3.2 | 3.2 | 0.00 | 0.00 | 0.00 | 31 | 1012.2 |
| 20260508052158 | 15 | 53 | 0.0 | 3.2 | 0.00 | 0.00 | 0.00 | 31 | 1012.2 |
| 20260508051959 | 15 | 52 | 1.6 | 3.2 | 0.00 | 0.00 | 0.00 | 31 | 1012.2 |
| 20260508051858 | 16 | 53 | 0.0 | 3.2 | 0.00 | 0.00 | 0.00 | 31 | 1012.3 |
| 20260508051759 | 16 | 53 | 0.0 | 3.2 | 0.00 | 0.00 | 0.00 | 31 | 1012.2 |
| 20260508051659 | 16 | 53 | 1.6 | 3.2 | 0.00 | 0.00 | 0.00 | 31 | 1012.2 |
| 20260508051559 | 16 | 53 | 3.2 | 3.2 | 0.00 | 0.00 | 0.00 | 31 | 1012.2 |
| 20260508051359 | 16 | 58 | 0.0 | 3.2 | 0.00 | 0.00 | 0.00 | 31 | 1012.2 |
| 20260508051158 | 16 | 58 | 1.6 | 3.2 | 0.00 | 0.00 | 0.00 | 31 | 1012.2 |
| 20260508051059 | 16 | 58 | 3.2 | 3.2 | 0.00 | 0.00 | 0.00 | 31 | 1012.2 |
| 20260508050858 | 16 | 58 | 1.6 | 3.2 | 0.00 | 0.00 | 0.00 | 30 | 1012.2 |
| 20260508050758 | 16 | 58 | 1.6 | 3.2 | 0.00 | 0.00 | 0.00 | 30 | 1012.2 |
| 20260508050558 | 16 | 58 | 0.0 | 3.2 | 0.00 | 0.00 | 0.00 | 30 | 1012.2 |
| 20260508050459 | 16 | 58 | 0.0 | 3.2 | 0.00 | 0.00 | 0.00 | 30 | 1012.2 |
| 20260508050358 | 16 | 58 | 1.6 | 3.2 | 0.00 | 0.00 | 0.00 | 30 | 1012.2 |
| 20260508050158 | 16 | 58 | 1.6 | 3.2 | 0.00 | 0.00 | 0.00 | 29 | 1012.2 |
| 20260508050058 | 16 | 60 | 3.2 | 3.2 | 0.00 | 0.00 | 0.00 | 29 | 1012.2 |
| 20260508050001 | 16 | 52 | 1.6 | 3.2 | 0.00 | 0.00 | 0.00 | 30 | 1012.1 |
| 20260508045858 | 16 | 52 | 0.0 | 3.2 | 0.00 | 0.00 | 0.00 | 29 | 1012.2 |
| 20260508045757 | 16 | 52 | 0.0 | 3.2 | 0.00 | 0.00 | 0.00 | 29 | 1012.2 |
| 20260508045658 | 16 | 59 | 0.0 | 0.0 | 0.00 | 0.00 | 0.00 | 29 | 1012.2 |
| 20260508045559 | 16 | 46 | 0.0 | 0.0 | 0.00 | 0.00 | 0.00 | 29 | 1012.2 |
| 20260508045459 | 16 | 49 | 0.0 | 0.0 | 0.00 | 0.00 | 0.00 | 29 | 1012.2 |
| 20260508045358 | 16 | 49 | 0.0 | 0.0 | 0.00 | 0.00 | 0.00 | 29 | 1012.1 |
| 20260508045258 | 16 | 48 | 0.0 | 0.0 | 0.00 | 0.00 | 0.00 | 30 | 1012.2 |
| 20260508045159 | 16 | 48 | 0.0 | 1.6 | 0.00 | 0.00 | 0.00 | 30 | 1012.1 |
| 20260508044959 | 16 | 48 | 0.0 | 3.2 | 0.00 | 0.00 | 0.00 | 30 | 1012.1 |
| 20260508044858 | 16 | 48 | 0.0 | 3.2 | 0.00 | 0.00 | 0.00 | 30 | 1012.2 |
| 20260508044758 | 16 | 48 | 0.0 | 3.2 | 0.00 | 0.00 | 0.00 | 30 | 1012.2 |
| 20260508044659 | 16 | 48 | 0.0 | 3.2 | 0.00 | 0.00 | 0.00 | 30 | 1012.2 |
| 20260508044558 | 16 | 48 | 0.0 | 3.2 | 0.00 | 0.00 | 0.00 | 29 | 1012.2 |
| 20260508044459 | 16 | 48 | 0.0 | 4.8 | 0.00 | 0.00 | 0.00 | 30 | 1012.1 |
| 20260508044359 | 16 | 51 | 0.0 | 4.8 | 0.00 | 0.00 | 0.00 | 30 | 1012.2 |
| 20260508044258 | 16 | 51 | 1.6 | 4.8 | 0.00 | 0.00 | 0.00 | 30 | 1012.1 |
| 20260508044158 | 16 | 51 | 3.2 | 4.8 | 0.00 | 0.00 | 0.00 | 29 | 1012.1 |
| 20260508044059 | 16 | 53 | 0.0 | 4.8 | 0.00 | 0.00 | 0.00 | 29 | 1012.1 |
| 20260508043659 | 16 | 61 | 3.2 | 4.8 | 0.00 | 0.00 | 0.00 | 29 | 1012.2 |
| 20260508043558 | 16 | 49 | 1.6 | 4.8 | 0.00 | 0.00 | 0.00 | 29 | 1012.2 |
| 20260508043359 | 16 | 59 | 1.6 | 4.8 | 0.00 | 0.00 | 0.00 | 30 | 1012.1 |
| 20260508043258 | 16 | 51 | 1.6 | 4.8 | 0.00 | 0.00 | 0.00 | 30 | 1012.1 |
| 20260508043159 | 16 | 53 | 1.6 | 4.8 | 0.00 | 0.00 | 0.00 | 31 | 1012.1 |
| 20260508043058 | 16 | 53 | 1.6 | 4.8 | 0.00 | 0.00 | 0.00 | 31 | 1012.1 |
| 20260508042958 | 16 | 55 | 1.6 | 4.8 | 0.00 | 0.00 | 0.00 | 31 | 1012.2 |
| 20260508042858 | 16 | 53 | 1.6 | 4.8 | 0.00 | 0.00 | 0.00 | 31 | 1012.1 |
| 20260508042757 | 16 | 51 | 1.6 | 4.8 | 0.00 | 0.00 | 0.00 | 31 | 1012.1 |
| 20260508042700 | 16 | 63 | 3.2 | 4.8 | 0.00 | 0.00 | 0.00 | 31 | 1012.1 |
| 20260508042559 | 16 | 76 | 4.8 | 4.8 | 0.00 | 0.00 | 0.00 | 30 | 1012.1 |
| 20260508042500 | 16 | 61 | 3.2 | 4.8 | 0.00 | 0.00 | 0.00 | 30 | 1012.1 |
| 20260508042400 | 16 | 61 | 1.6 | 4.8 | 0.00 | 0.00 | 0.00 | 30 | 1012.1 |
| 20260508042259 | 16 | 68 | 1.6 | 4.8 | 0.00 | 0.00 | 0.00 | 31 | 1012.1 |
| 20260508042159 | 16 | 68 | 1.6 | 4.8 | 0.00 | 0.00 | 0.00 | 31 | 1012.1 |
| 20260508042058 | 16 | 53 | 1.6 | 4.8 | 0.00 | 0.00 | 0.00 | 31 | 1012.1 |
| 20260508041958 | 16 | 38 | 1.6 | 4.8 | 0.00 | 0.00 | 0.00 | 31 | 1012.1 |
| 20260508041658 | 16 | 46 | 3.2 | 4.8 | 0.00 | 0.00 | 0.00 | 32 | 1012.0 |
| 20260508041559 | 16 | 51 | 1.6 | 4.8 | 0.00 | 0.00 | 0.00 | 32 | 1012.0 |
| 20260508041359 | 16 | 66 | 3.2 | 4.8 | 0.00 | 0.00 | 0.00 | 33 | 1012.0 |
| 20260508041257 | 16 | 65 | 1.6 | 4.8 | 0.00 | 0.00 | 0.00 | 31 | 1012.0 |
| 20260508041158 | 16 | 61 | 1.6 | 4.8 | 0.00 | 0.00 | 0.00 | 32 | 1012.0 |
| 20260508041058 | 16 | 55 | 1.6 | 4.8 | 0.00 | 0.00 | 0.00 | 32 | 1012.0 |
| 20260508040959 | 16 | 57 | 1.6 | 4.8 | 0.00 | 0.00 | 0.00 | 32 | 1012.1 |
| 20260508040858 | 16 | 51 | 1.6 | 4.8 | 0.00 | 0.00 | 0.00 | 32 | 1012.0 |
| 20260508040658 | 16 | 55 | 3.2 | 4.8 | 0.00 | 0.00 | 0.00 | 31 | 1012.0 |
| 20260508040559 | 16 | 53 | 1.6 | 4.8 | 0.00 | 0.00 | 0.00 | 31 | 1012.0 |
| 20260508040458 | 16 | 55 | 3.2 | 4.8 | 0.00 | 0.00 | 0.00 | 32 | 1012.0 |
| 20260508040359 | 16 | 69 | 0.0 | 4.8 | 0.00 | 0.00 | 0.00 | 32 | 1012.0 |
| 20260508040258 | 16 | 51 | 3.2 | 4.8 | 0.00 | 0.00 | 0.00 | 31 | 1012.0 |
| 20260508040158 | 16 | 49 | 1.6 | 4.8 | 0.00 | 0.00 | 0.00 | 32 | 1012.0 |
| 20260508040058 | 16 | 51 | 3.2 | 4.8 | 0.00 | 0.00 | 0.00 | 31 | 1012.0 |
| 20260508035858 | 16 | 53 | 1.6 | 4.8 | 0.00 | 0.00 | 0.00 | 31 | 1011.9 |
| 20260508035758 | 16 | 57 | 3.2 | 4.8 | 0.00 | 0.00 | 0.00 | 31 | 1011.9 |
| 20260508035658 | 16 | 50 | 1.6 | 4.8 | 0.00 | 0.00 | 0.00 | 31 | 1011.9 |
| 20260508035558 | 16 | 60 | 1.6 | 4.8 | 0.00 | 0.00 | 0.00 | 31 | 1011.9 |
| 20260508035458 | 16 | 69 | 1.6 | 4.8 | 0.00 | 0.00 | 0.00 | 31 | 1011.9 |
| 20260508035358 | 16 | 69 | 1.6 | 4.8 | 0.00 | 0.00 | 0.00 | 31 | 1011.9 |
| 20260508035259 | 16 | 72 | 1.6 | 4.8 | 0.00 | 0.00 | 0.00 | 31 | 1011.9 |
| 20260508035158 | 16 | 73 | 3.2 | 4.8 | 0.00 | 0.00 | 0.00 | 31 | 1011.9 |
| 20260508035059 | 16 | 69 | 1.6 | 4.8 | 0.00 | 0.00 | 0.00 | 31 | 1011.9 |
| 20260508034959 | 16 | 65 | 3.2 | 4.8 | 0.00 | 0.00 | 0.00 | 31 | 1011.9 |
| 20260508034858 | 16 | 65 | 3.2 | 4.8 | 0.00 | 0.00 | 0.00 | 31 | 1011.9 |
| 20260508034758 | 16 | 64 | 3.2 | 4.8 | 0.00 | 0.00 | 0.00 | 30 | 1011.9 |
| 20260508034358 | 16 | 55 | 1.6 | 4.8 | 0.00 | 0.00 | 0.00 | 30 | 1011.9 |
| 20260508034259 | 16 | 55 | 1.6 | 4.8 | 0.00 | 0.00 | 0.00 | 29 | 1011.9 |
| 20260508034159 | 17 | 55 | 1.6 | 4.8 | 0.00 | 0.00 | 0.00 | 29 | 1011.9 |
| 20260508034059 | 17 | 55 | 1.6 | 4.8 | 0.00 | 0.00 | 0.00 | 30 | 1011.8 |
| 20260508033857 | 17 | 63 | 1.6 | 4.8 | 0.00 | 0.00 | 0.00 | 29 | 1011.8 |
| 20260508033758 | 17 | 49 | 1.6 | 4.8 | 0.00 | 0.00 | 0.00 | 29 | 1011.8 |
| 20260508033657 | 17 | 48 | 3.2 | 3.2 | 0.00 | 0.00 | 0.00 | 29 | 1011.8 |
| 20260508033558 | 17 | 43 | 1.6 | 3.2 | 0.00 | 0.00 | 0.00 | 29 | 1011.8 |
| 20260508033359 | 17 | 45 | 1.6 | 3.2 | 0.00 | 0.00 | 0.00 | 29 | 1011.8 |
| 20260508033258 | 17 | 49 | 1.6 | 3.2 | 0.00 | 0.00 | 0.00 | 29 | 1011.8 |
| 20260508033059 | 17 | 51 | 1.6 | 3.2 | 0.00 | 0.00 | 0.00 | 28 | 1011.8 |
| 20260508032959 | 17 | 51 | 1.6 | 4.8 | 0.00 | 0.00 | 0.00 | 28 | 1011.8 |
| 20260508032657 | 17 | 49 | 0.0 | 4.8 | 0.00 | 0.00 | 0.00 | 28 | 1011.7 |
| 20260508032559 | 17 | 49 | 1.6 | 4.8 | 0.00 | 0.00 | 0.00 | 28 | 1011.8 |
| 20260508032459 | 17 | 50 | 1.6 | 4.8 | 0.00 | 0.00 | 0.00 | 28 | 1011.7 |
| 20260508032358 | 17 | 44 | 3.2 | 4.8 | 0.00 | 0.00 | 0.00 | 28 | 1011.7 |
| 20260508032258 | 16 | 43 | 0.0 | 4.8 | 0.00 | 0.00 | 0.00 | 28 | 1011.7 |
| 20260508032158 | 16 | 43 | 3.2 | 4.8 | 0.00 | 0.00 | 0.00 | 29 | 1011.7 |
| 20260508031858 | 16 | 46 | 1.6 | 4.8 | 0.00 | 0.00 | 0.00 | 30 | 1011.7 |
| 20260508031758 | 16 | 46 | 3.2 | 4.8 | 0.00 | 0.00 | 0.00 | 30 | 1011.7 |
| 20260508031659 | 16 | 58 | 0.0 | 4.8 | 0.00 | 0.00 | 0.00 | 30 | 1011.7 |
| 20260508031459 | 17 | 58 | 0.0 | 4.8 | 0.00 | 0.00 | 0.00 | 31 | 1011.6 |
| 20260508031358 | 17 | 58 | 1.6 | 4.8 | 0.00 | 0.00 | 0.00 | 30 | 1011.6 |
| 20260508031259 | 17 | 58 | 0.0 | 4.8 | 0.00 | 0.00 | 0.00 | 30 | 1011.6 |
| 20260508031159 | 17 | 58 | 3.2 | 4.8 | 0.00 | 0.00 | 0.00 | 30 | 1011.5 |
| 20260508031058 | 17 | 58 | 3.2 | 4.8 | 0.00 | 0.00 | 0.00 | 30 | 1011.6 |
| 20260508030959 | 17 | 58 | 3.2 | 4.8 | 0.00 | 0.00 | 0.00 | 30 | 1011.5 |
| 20260508030658 | 17 | 58 | 1.6 | 4.8 | 0.00 | 0.00 | 0.00 | 30 | 1011.5 |
| 20260508030559 | 17 | 58 | 0.0 | 4.8 | 0.00 | 0.00 | 0.00 | 31 | 1011.5 |
| 20260508030358 | 17 | 55 | 3.2 | 3.2 | 0.00 | 0.00 | 0.00 | 30 | 1011.5 |
| 20260508030259 | 17 | 355 | 0.0 | 3.2 | 0.00 | 0.00 | 0.00 | 30 | 1011.5 |
| 20260508030158 | 17 | 355 | 0.0 | 3.2 | 0.00 | 0.00 | 0.00 | 30 | 1011.5 |
| 20260508030058 | 17 | 270 | 1.6 | 3.2 | 0.00 | 0.00 | 0.00 | 30 | 1011.5 |
| 20260508030001 | 17 | 257 | 1.6 | 3.2 | 0.00 | 0.00 | 0.00 | 29 | 1011.5 |
| 20260508025858 | 17 | 257 | 1.6 | 3.2 | 0.00 | 0.00 | 0.00 | 29 | 1011.5 |
| 20260508025758 | 17 | 257 | 1.6 | 3.2 | 0.00 | 0.00 | 0.00 | 29 | 1011.4 |
| 20260508025559 | 17 | 251 | 1.6 | 3.2 | 0.00 | 0.00 | 0.00 | 29 | 1011.5 |
| 20260508025459 | 17 | 251 | 0.0 | 3.2 | 0.00 | 0.00 | 0.00 | 29 | 1011.5 |
| 20260508025358 | 17 | 251 | 0.0 | 3.2 | 0.00 | 0.00 | 0.00 | 29 | 1011.4 |
| 20260508025300 | 17 | 251 | 1.6 | 1.6 | 0.00 | 0.00 | 0.00 | 29 | 1011.4 |
| 20260508025158 | 17 | 251 | 0.0 | 1.6 | 0.00 | 0.00 | 0.00 | 29 | 1011.4 |
| 20260508025059 | 17 | 251 | 0.0 | 1.6 | 0.00 | 0.00 | 0.00 | 28 | 1011.4 |
| 20260508024959 | 18 | 251 | 0.0 | 1.6 | 0.00 | 0.00 | 0.00 | 28 | 1011.4 |
| 20260508024858 | 18 | 251 | 1.6 | 1.6 | 0.00 | 0.00 | 0.00 | 28 | 1011.4 |
| 20260508024759 | 18 | 251 | 0.0 | 1.6 | 0.00 | 0.00 | 0.00 | 28 | 1011.4 |
| 20260508024659 | 18 | 251 | 0.0 | 1.6 | 0.00 | 0.00 | 0.00 | 28 | 1011.4 |
| 20260508024500 | 18 | 251 | 0.0 | 1.6 | 0.00 | 0.00 | 0.00 | 28 | 1011.4 |
| 20260508024358 | 18 | 251 | 0.0 | 0.0 | 0.00 | 0.00 | 0.00 | 28 | 1011.4 |
| 20260508024258 | 18 | 251 | 0.0 | 0.0 | 0.00 | 0.00 | 0.00 | 28 | 1011.4 |
| 20260508024158 | 18 | 251 | 0.0 | 0.0 | 0.00 | 0.00 | 0.00 | 28 | 1011.4 |
| 20260508024058 | 18 | 251 | 0.0 | 0.0 | 0.00 | 0.00 | 0.00 | 28 | 1011.4 |
| 20260508024000 | 18 | 251 | 0.0 | 0.0 | 0.00 | 0.00 | 0.00 | 28 | 1011.4 |
| 20260508023658 | 18 | 251 | 0.0 | 0.0 | 0.00 | 0.00 | 0.00 | 28 | 1011.4 |
| 20260508023558 | 18 | 251 | 0.0 | 0.0 | 0.00 | 0.00 | 0.00 | 28 | 1011.4 |
| 20260508023458 | 18 | 251 | 0.0 | 0.0 | 0.00 | 0.00 | 0.00 | 27 | 1011.4 |
| 20260508023358 | 18 | 251 | 0.0 | 0.0 | 0.00 | 0.00 | 0.00 | 27 | 1011.4 |
| 20260508023158 | 18 | 251 | 0.0 | 0.0 | 0.00 | 0.00 | 0.00 | 27 | 1011.4 |
| 20260508023058 | 18 | 251 | 0.0 | 0.0 | 0.00 | 0.00 | 0.00 | 26 | 1011.5 |
| 20260508022959 | 18 | 251 | 0.0 | 0.0 | 0.00 | 0.00 | 0.00 | 26 | 1011.4 |
| 20260508022858 | 18 | 251 | 0.0 | 0.0 | 0.00 | 0.00 | 0.00 | 26 | 1011.4 |
| 20260508022758 | 18 | 251 | 0.0 | 0.0 | 0.00 | 0.00 | 0.00 | 26 | 1011.4 |
| 20260508022657 | 18 | 251 | 0.0 | 0.0 | 0.00 | 0.00 | 0.00 | 26 | 1011.5 |
| 20260508022500 | 19 | 251 | 0.0 | 0.0 | 0.00 | 0.00 | 0.00 | 26 | 1011.4 |
| 20260508022258 | 19 | 251 | 0.0 | 0.0 | 0.00 | 0.00 | 0.00 | 25 | 1011.4 |
| 20260508022200 | 19 | 251 | 0.0 | 0.0 | 0.00 | 0.00 | 0.00 | 25 | 1011.4 |
| 20260508021959 | 19 | 251 | 0.0 | 0.0 | 0.00 | 0.00 | 0.00 | 25 | 1011.4 |
| 20260508021858 | 19 | 251 | 0.0 | 0.0 | 0.00 | 0.00 | 0.00 | 25 | 1011.4 |
| 20260508021759 | 19 | 251 | 0.0 | 1.6 | 0.00 | 0.00 | 0.00 | 25 | 1011.4 |
| 20260508021659 | 19 | 251 | 0.0 | 3.2 | 0.00 | 0.00 | 0.00 | 25 | 1011.4 |
| 20260508021558 | 19 | 251 | 0.0 | 3.2 | 0.00 | 0.00 | 0.00 | 24 | 1011.4 |
| 20260508021459 | 20 | 251 | 0.0 | 4.8 | 0.00 | 0.00 | 0.00 | 24 | 1011.4 |
| 20260508021358 | 20 | 251 | 0.0 | 4.8 | 0.00 | 0.00 | 0.00 | 24 | 1011.3 |
| 20260508021257 | 20 | 251 | 0.0 | 4.8 | 0.00 | 0.00 | 0.00 | 24 | 1011.3 |
| 20260508021058 | 20 | 251 | 0.0 | 4.8 | 0.00 | 0.00 | 0.00 | 24 | 1011.3 |
| 20260508020959 | 20 | 251 | 0.0 | 4.8 | 0.00 | 0.00 | 0.00 | 23 | 1011.3 |
| 20260508020858 | 20 | 251 | 0.0 | 4.8 | 0.00 | 0.00 | 0.00 | 23 | 1011.3 |
| 20260508020757 | 20 | 250 | 1.6 | 4.8 | 0.00 | 0.00 | 0.00 | 23 | 1011.3 |
| 20260508020658 | 20 | 246 | 0.0 | 4.8 | 0.00 | 0.00 | 0.00 | 23 | 1011.3 |
| 20260508020558 | 20 | 266 | 4.8 | 4.8 | 0.00 | 0.00 | 0.00 | 24 | 1011.3 |
| 20260508020459 | 20 | 254 | 1.6 | 4.8 | 0.00 | 0.00 | 0.00 | 24 | 1011.3 |
| 20260508020359 | 20 | 250 | 1.6 | 4.8 | 0.00 | 0.00 | 0.00 | 24 | 1011.3 |
| 20260508020258 | 20 | 255 | 3.2 | 4.8 | 0.00 | 0.00 | 0.00 | 23 | 1011.2 |
| 20260508020159 | 20 | 258 | 0.0 | 4.8 | 0.00 | 0.00 | 0.00 | 23 | 1011.2 |
| 20260508020000 | 20 | 258 | 0.0 | 6.4 | 0.00 | 0.00 | 0.00 | 24 | 1011.2 |
| 20260508015859 | 20 | 255 | 1.6 | 6.4 | 0.00 | 0.00 | 0.00 | 23 | 1011.2 |
| 20260508015758 | 20 | 255 | 0.0 | 6.4 | 0.00 | 0.00 | 0.00 | 23 | 1011.2 |
| 20260508015658 | 20 | 255 | 0.0 | 6.4 | 0.00 | 0.00 | 0.00 | 24 | 1011.2 |
| 20260508015458 | 20 | 253 | 1.6 | 6.4 | 0.00 | 0.00 | 0.00 | 24 | 1011.3 |
| 20260508015358 | 20 | 254 | 3.2 | 6.4 | 0.00 | 0.00 | 0.00 | 24 | 1011.2 |
| 20260508015258 | 20 | 308 | 3.2 | 6.4 | 0.00 | 0.00 | 0.00 | 23 | 1011.3 |
| 20260508015158 | 20 | 215 | 4.8 | 4.8 | 0.00 | 0.00 | 0.00 | 24 | 1011.3 |
| 20260508015058 | 20 | 253 | 0.0 | 6.4 | 0.00 | 0.00 | 0.00 | 23 | 1011.3 |
| 20260508014858 | 20 | 217 | 3.2 | 6.4 | 0.00 | 0.00 | 0.00 | 22 | 1011.3 |
| 20260508014758 | 20 | 248 | 3.2 | 6.4 | 0.00 | 0.00 | 0.00 | 22 | 1011.4 |
| 20260508014558 | 21 | 267 | 0.0 | 6.4 | 0.00 | 0.00 | 0.00 | 22 | 1011.3 |
| 20260508014458 | 21 | 267 | 1.6 | 6.4 | 0.00 | 0.00 | 0.00 | 23 | 1011.4 |
| 20260508014359 | 21 | 251 | 0.0 | 6.4 | 0.00 | 0.00 | 0.00 | 22 | 1011.4 |
| 20260508014258 | 21 | 252 | 1.6 | 6.4 | 0.00 | 0.00 | 0.00 | 23 | 1011.4 |
| 20260508014158 | 21 | 236 | 3.2 | 8.0 | 0.00 | 0.00 | 0.00 | 22 | 1011.4 |
| 20260508014058 | 21 | 221 | 4.8 | 8.0 | 0.00 | 0.00 | 0.00 | 22 | 1011.4 |
| 20260508013959 | 21 | 279 | 0.0 | 8.0 | 0.00 | 0.00 | 0.00 | 22 | 1011.4 |
| 20260508013858 | 21 | 246 | 4.8 | 8.0 | 0.00 | 0.00 | 0.00 | 22 | 1011.4 |
| 20260508013759 | 21 | 227 | 3.2 | 9.7 | 0.00 | 0.00 | 0.00 | 22 | 1011.4 |
| 20260508013658 | 21 | 238 | 3.2 | 11.3 | 0.00 | 0.00 | 0.00 | 21 | 1011.4 |
| 20260508013258 | 21 | 283 | 4.8 | 11.3 | 0.00 | 0.00 | 0.00 | 21 | 1011.4 |
| 20260508013158 | 21 | 217 | 3.2 | 11.3 | 0.00 | 0.00 | 0.00 | 21 | 1011.4 |
| 20260508013058 | 21 | 254 | 1.6 | 11.3 | 0.00 | 0.00 | 0.00 | 22 | 1011.4 |
| 20260508012958 | 21 | 226 | 8.0 | 11.3 | 0.00 | 0.00 | 0.00 | 22 | 1011.4 |
| 20260508012858 | 21 | 243 | 4.8 | 11.3 | 0.00 | 0.00 | 0.00 | 21 | 1011.4 |
| 20260508012759 | 21 | 251 | 4.8 | 11.3 | 0.00 | 0.00 | 0.00 | 21 | 1011.4 |
| 20260508012459 | 21 | 267 | 4.8 | 11.3 | 0.00 | 0.00 | 0.00 | 21 | 1011.4 |
| 20260508012158 | 21 | 209 | 0.0 | 11.3 | 0.00 | 0.00 | 0.00 | 22 | 1011.3 |
| 20260508012058 | 21 | 215 | 4.8 | 11.3 | 0.00 | 0.00 | 0.00 | 21 | 1011.4 |
| 20260508011959 | 21 | 201 | 4.8 | 11.3 | 0.00 | 0.00 | 0.00 | 21 | 1011.3 |
| 20260508011858 | 21 | 297 | 0.0 | 11.3 | 0.00 | 0.00 | 0.00 | 21 | 1011.3 |
| 20260508011758 | 21 | 235 | 3.2 | 11.3 | 0.00 | 0.00 | 0.00 | 21 | 1011.4 |
| 20260508011658 | 21 | 221 | 3.2 | 11.3 | 0.00 | 0.00 | 0.00 | 22 | 1011.3 |
| 20260508011559 | 21 | 216 | 4.8 | 11.3 | 0.00 | 0.00 | 0.00 | 20 | 1011.4 |
| 20260508011459 | 21 | 223 | 8.0 | 11.3 | 0.00 | 0.00 | 0.00 | 21 | 1011.3 |
| 20260508011358 | 21 | 220 | 4.8 | 11.3 | 0.00 | 0.00 | 0.00 | 20 | 1011.3 |
| 20260508011159 | 21 | 213 | 9.7 | 9.7 | 0.00 | 0.00 | 0.00 | 21 | 1011.4 |
| 20260508011058 | 21 | 256 | 4.8 | 11.3 | 0.00 | 0.00 | 0.00 | 21 | 1011.3 |
| 20260508010959 | 21 | 235 | 4.8 | 11.3 | 0.00 | 0.00 | 0.00 | 20 | 1011.3 |
| 20260508010900 | 21 | 267 | 1.6 | 11.3 | 0.00 | 0.00 | 0.00 | 21 | 1011.4 |
| 20260508010758 | 22 | 290 | 1.6 | 11.3 | 0.00 | 0.00 | 0.00 | 20 | 1011.4 |
| 20260508010658 | 22 | 246 | 4.8 | 12.9 | 0.00 | 0.00 | 0.00 | 20 | 1011.4 |
| 20260508010558 | 22 | 246 | 3.2 | 12.9 | 0.00 | 0.00 | 0.00 | 20 | 1011.4 |
| 20260508010459 | 22 | 261 | 4.8 | 12.9 | 0.00 | 0.00 | 0.00 | 19 | 1011.3 |
| 20260508010357 | 22 | 207 | 4.8 | 12.9 | 0.00 | 0.00 | 0.00 | 19 | 1011.4 |
| 20260508010258 | 22 | 234 | 3.2 | 12.9 | 0.00 | 0.00 | 0.00 | 20 | 1011.4 |
| 20260508010159 | 22 | 252 | 9.7 | 12.9 | 0.00 | 0.00 | 0.00 | 21 | 1011.4 |
| 20260508010058 | 22 | 262 | 4.8 | 12.9 | 0.00 | 0.00 | 0.00 | 20 | 1011.4 |
| 20260508010001 | 22 | 216 | 4.8 | 12.9 | 0.00 | 0.00 | 0.00 | 20 | 1011.4 |
| 20260508005858 | 22 | 210 | 3.2 | 12.9 | 0.00 | 0.00 | 0.00 | 20 | 1011.5 |
| 20260508005758 | 22 | 203 | 9.7 | 17.7 | 0.00 | 0.00 | 0.00 | 20 | 1011.5 |
| 20260508005658 | 22 | 229 | 3.2 | 17.7 | 0.00 | 0.00 | 0.00 | 19 | 1011.4 |
| 20260508005558 | 22 | 269 | 1.6 | 17.7 | 0.00 | 0.00 | 0.00 | 20 | 1011.4 |
| 20260508005458 | 22 | 246 | 1.6 | 17.7 | 0.00 | 0.00 | 0.00 | 20 | 1011.5 |
| 20260508005358 | 22 | 263 | 6.4 | 17.7 | 0.00 | 0.00 | 0.00 | 20 | 1011.5 |
| 20260508005259 | 22 | 277 | 0.0 | 17.7 | 0.00 | 0.00 | 0.00 | 19 | 1011.4 |
| 20260508005158 | 22 | 265 | 1.6 | 17.7 | 0.00 | 0.00 | 0.00 | 19 | 1011.5 |
| 20260508005058 | 22 | 308 | 6.4 | 17.7 | 0.00 | 0.00 | 0.00 | 20 | 1011.5 |
| 20260508004958 | 22 | 310 | 3.2 | 17.7 | 0.00 | 0.00 | 0.00 | 19 | 1011.5 |
| 20260508004858 | 22 | 315 | 8.0 | 14.5 | 0.00 | 0.00 | 0.00 | 20 | 1011.4 |
| 20260508004758 | 22 | 287 | 11.3 | 14.5 | 0.00 | 0.00 | 0.00 | 20 | 1011.4 |
| 20260508004659 | 22 | 268 | 6.4 | 11.3 | 0.00 | 0.00 | 0.00 | 21 | 1011.4 |
| 20260508004558 | 22 | 232 | 1.6 | 11.3 | 0.00 | 0.00 | 0.00 | 21 | 1011.4 |
| 20260508004459 | 22 | 222 | 6.4 | 19.3 | 0.00 | 0.00 | 0.00 | 22 | 1011.4 |
| 20260508004359 | 22 | 280 | 4.8 | 19.3 | 0.00 | 0.00 | 0.00 | 19 | 1011.4 |
| 20260508004159 | 22 | 257 | 3.2 | 19.3 | 0.00 | 0.00 | 0.00 | 20 | 1011.4 |
| 20260508004059 | 22 | 244 | 1.6 | 19.3 | 0.00 | 0.00 | 0.00 | 19 | 1011.4 |
| 20260508003958 | 22 | 259 | 4.8 | 19.3 | 0.00 | 0.00 | 0.00 | 20 | 1011.4 |
| 20260508003858 | 22 | 228 | 6.4 | 19.3 | 0.00 | 0.00 | 0.00 | 19 | 1011.4 |
| 20260508003758 | 22 | 248 | 8.0 | 19.3 | 0.00 | 0.00 | 0.00 | 20 | 1011.5 |
| 20260508003559 | 22 | 249 | 4.8 | 19.3 | 0.00 | 0.00 | 0.00 | 20 | 1011.5 |
| 20260508003458 | 22 | 215 | 6.4 | 14.5 | 0.00 | 0.00 | 0.00 | 20 | 1011.5 |
| 20260508003358 | 22 | 221 | 4.8 | 14.5 | 0.00 | 0.00 | 0.00 | 19 | 1011.5 |
| 20260508003258 | 22 | 242 | 3.2 | 14.5 | 0.00 | 0.00 | 0.00 | 21 | 1011.4 |
| 20260508003158 | 22 | 225 | 3.2 | 14.5 | 0.00 | 0.00 | 0.00 | 19 | 1011.5 |
| 20260508003106 | 22 | 226 | 3.2 | 14.5 | 0.00 | 0.00 | 0.00 | 20 | 1011.5 |
| 20260508002958 | 22 | 230 | 14.5 | 14.5 | 0.00 | 0.00 | 0.00 | 20 | 1011.5 |
| 20260508002858 | 22 | 237 | 9.7 | 14.5 | 0.00 | 0.00 | 0.00 | 20 | 1011.5 |
| 20260508002758 | 22 | 233 | 4.8 | 14.5 | 0.00 | 0.00 | 0.00 | 20 | 1011.5 |
| 20260508002558 | 22 | 235 | 6.4 | 14.5 | 0.00 | 0.00 | 0.00 | 20 | 1011.5 |
| 20260508002459 | 22 | 223 | 6.4 | 14.5 | 0.00 | 0.00 | 0.00 | 20 | 1011.5 |
| 20260508002359 | 22 | 306 | 9.7 | 14.5 | 0.00 | 0.00 | 0.00 | 20 | 1011.4 |
| 20260508002300 | 22 | 243 | 3.2 | 11.3 | 0.00 | 0.00 | 0.00 | 21 | 1011.4 |
| 20260508002159 | 22 | 202 | 6.4 | 11.3 | 0.00 | 0.00 | 0.00 | 20 | 1011.4 |
| 20260508002058 | 22 | 162 | 8.0 | 11.3 | 0.00 | 0.00 | 0.00 | 19 | 1011.4 |
| 20260508001959 | 22 | 178 | 3.2 | 11.3 | 0.00 | 0.00 | 0.00 | 21 | 1011.4 |
| 20260508001858 | 22 | 186 | 3.2 | 11.3 | 0.00 | 0.00 | 0.00 | 19 | 1011.3 |
| 20260508001758 | 22 | 161 | 6.4 | 11.3 | 0.00 | 0.00 | 0.00 | 21 | 1011.3 |
| 20260508001659 | 22 | 192 | 3.2 | 11.3 | 0.00 | 0.00 | 0.00 | 21 | 1011.3 |
| 20260508001559 | 22 | 183 | 6.4 | 12.9 | 0.00 | 0.00 | 0.00 | 20 | 1011.3 |
| 20260508001459 | 22 | 228 | 6.4 | 12.9 | 0.00 | 0.00 | 0.00 | 20 | 1011.3 |
| 20260508001359 | 22 | 198 | 1.6 | 12.9 | 0.00 | 0.00 | 0.00 | 20 | 1011.3 |
| 20260508001258 | 22 | 221 | 4.8 | 12.9 | 0.00 | 0.00 | 0.00 | 20 | 1011.3 |
| 20260508001158 | 22 | 219 | 4.8 | 12.9 | 0.00 | 0.00 | 0.00 | 19 | 1011.3 |
| 20260508001058 | 22 | 184 | 1.6 | 12.9 | 0.00 | 0.00 | 0.00 | 20 | 1011.3 |
| 20260508000958 | 22 | 120 | 3.2 | 14.5 | 0.00 | 0.00 | 0.00 | 20 | 1011.3 |
| 20260508000858 | 22 | 200 | 3.2 | 14.5 | 0.00 | 0.00 | 0.00 | 18 | 1011.3 |
| 20260508000758 | 22 | 240 | 0.0 | 14.5 | 0.00 | 0.00 | 0.00 | 20 | 1011.3 |
| 20260508000659 | 22 | 275 | 12.9 | 14.5 | 0.00 | 0.00 | 0.00 | 20 | 1011.3 |
| 20260508000559 | 22 | 193 | 8.0 | 14.5 | 0.00 | 0.00 | 0.00 | 20 | 1011.3 |
| 20260508000459 | 22 | 245 | 9.7 | 14.5 | 0.00 | 0.00 | 0.00 | 20 | 1011.3 |
| 20260508000358 | 22 | 259 | 6.4 | 14.5 | 0.00 | 0.00 | 0.00 | 18 | 1011.3 |
| 20260508000259 | 22 | 231 | 12.9 | 14.5 | 0.00 | 0.00 | 0.00 | 20 | 1011.3 |
| 20260508000158 | 22 | 169 | 8.0 | 14.5 | 0.00 | 0.00 | 0.00 | 19 | 1011.4 |
| 20260508000003 | 22 | 258 | 8.0 | 12.9 | 0.00 | 0.00 | 0.00 | 20 | 1011.5 |
| 20260507235858 | 22 | 210 | 4.8 | 12.9 | 0.00 | 0.00 | 0.00 | 19 | 1011.5 |
| 20260507235758 | 22 | 230 | 6.4 | 14.5 | 0.00 | 0.00 | 0.00 | 20 | 1011.5 |
| 20260507235657 | 22 | 240 | 8.0 | 14.5 | 0.00 | 0.00 | 0.00 | 20 | 1011.5 |
| 20260507235558 | 22 | 223 | 4.8 | 14.5 | 0.00 | 0.00 | 0.00 | 22 | 1011.5 |
| 20260507235458 | 22 | 238 | 6.4 | 14.5 | 0.00 | 0.00 | 0.00 | 21 | 1011.6 |
| 20260507235358 | 22 | 211 | 4.8 | 14.5 | 0.00 | 0.00 | 0.00 | 20 | 1011.6 |
| 20260507235159 | 22 | 140 | 4.8 | 9.7 | 0.00 | 0.00 | 0.00 | 21 | 1011.7 |
| 20260507235057 | 22 | 229 | 6.4 | 9.7 | 0.00 | 0.00 | 0.00 | 21 | 1011.7 |
| 20260507234958 | 22 | 244 | 3.2 | 9.7 | 0.00 | 0.00 | 0.00 | 21 | 1011.7 |
| 20260507234858 | 22 | 207 | 4.8 | 9.7 | 0.00 | 0.00 | 0.00 | 22 | 1011.7 |
| 20260507234759 | 22 | 233 | 6.4 | 9.7 | 0.00 | 0.00 | 0.00 | 22 | 1011.7 |
| 20260507234658 | 22 | 178 | 3.2 | 9.7 | 0.00 | 0.00 | 0.00 | 22 | 1011.7 |
| 20260507234559 | 22 | 264 | 1.6 | 11.3 | 0.00 | 0.00 | 0.00 | 19 | 1011.8 |
| 20260507234359 | 22 | 325 | 3.2 | 12.9 | 0.00 | 0.00 | 0.00 | 21 | 1011.8 |
| 20260507234258 | 22 | 280 | 3.2 | 12.9 | 0.00 | 0.00 | 0.00 | 22 | 1011.9 |
| 20260507234058 | 22 | 190 | 3.2 | 12.9 | 0.00 | 0.00 | 0.00 | 22 | 1011.9 |
| 20260507233858 | 22 | 227 | 1.6 | 12.9 | 0.00 | 0.00 | 0.00 | 21 | 1011.9 |
| 20260507233759 | 22 | 217 | 4.8 | 12.9 | 0.00 | 0.00 | 0.00 | 20 | 1011.9 |
| 20260507233658 | 22 | 192 | 3.2 | 12.9 | 0.00 | 0.00 | 0.00 | 21 | 1012.0 |
| 20260507233559 | 22 | 226 | 9.7 | 12.9 | 0.00 | 0.00 | 0.00 | 21 | 1012.0 |
| 20260507233459 | 22 | 220 | 6.4 | 11.3 | 0.00 | 0.00 | 0.00 | 21 | 1012.0 |
| 20260507233259 | 22 | 217 | 1.6 | 11.3 | 0.00 | 0.00 | 0.00 | 21 | 1011.9 |
| 20260507233158 | 22 | 211 | 1.6 | 11.3 | 0.00 | 0.00 | 0.00 | 20 | 1012.0 |
| 20260507233058 | 22 | 186 | 4.8 | 11.3 | 0.00 | 0.00 | 0.00 | 22 | 1012.1 |
| 20260507232858 | 22 | 228 | 6.4 | 11.3 | 0.00 | 0.00 | 0.00 | 21 | 1011.9 |
| 20260507232759 | 22 | 182 | 4.8 | 11.3 | 0.00 | 0.00 | 0.00 | 21 | 1012.0 |
| 20260507232500 | 22 | 251 | 4.8 | 12.9 | 0.00 | 0.00 | 0.00 | 21 | 1012.0 |
| 20260507232358 | 22 | 213 | 3.2 | 12.9 | 0.00 | 0.00 | 0.00 | 21 | 1012.0 |
| 20260507232258 | 22 | 263 | 4.8 | 12.9 | 0.00 | 0.00 | 0.00 | 22 | 1012.0 |
| 20260507232159 | 22 | 244 | 3.2 | 12.9 | 0.00 | 0.00 | 0.00 | 21 | 1012.0 |
| 20260507231958 | 22 | 204 | 4.8 | 12.9 | 0.00 | 0.00 | 0.00 | 23 | 1012.1 |
| 20260507231658 | 21 | 240 | 1.6 | 11.3 | 0.00 | 0.00 | 0.00 | 21 | 1012.1 |
| 20260507231558 | 21 | 261 | 4.8 | 11.3 | 0.00 | 0.00 | 0.00 | 21 | 1012.1 |
| 20260507231459 | 21 | 191 | 1.6 | 11.3 | 0.00 | 0.00 | 0.00 | 21 | 1012.1 |
| 20260507231359 | 21 | 140 | 6.4 | 11.3 | 0.00 | 0.00 | 0.00 | 22 | 1012.1 |
| 20260507231258 | 21 | 264 | 4.8 | 11.3 | 0.00 | 0.00 | 0.00 | 22 | 1012.1 |
| 20260507231159 | 21 | 211 | 3.2 | 11.3 | 0.00 | 0.00 | 0.00 | 22 | 1012.1 |
| 20260507231058 | 21 | 215 | 3.2 | 11.3 | 0.00 | 0.00 | 0.00 | 22 | 1012.2 |
| 20260507230958 | 21 | 213 | 6.4 | 11.3 | 0.00 | 0.00 | 0.00 | 21 | 1012.1 |
| 20260507230758 | 21 | 175 | 1.6 | 12.9 | 0.00 | 0.00 | 0.00 | 23 | 1012.1 |
| 20260507230658 | 21 | 202 | 4.8 | 12.9 | 0.00 | 0.00 | 0.00 | 20 | 1012.1 |
| 20260507230558 | 21 | 204 | 4.8 | 12.9 | 0.00 | 0.00 | 0.00 | 21 | 1012.2 |
| 20260507230459 | 21 | 240 | 1.6 | 12.9 | 0.00 | 0.00 | 0.00 | 21 | 1012.2 |
| 20260507230358 | 21 | 147 | 4.8 | 12.9 | 0.00 | 0.00 | 0.00 | 22 | 1012.2 |
| 20260507230258 | 21 | 169 | 6.4 | 12.9 | 0.00 | 0.00 | 0.00 | 21 | 1012.2 |
| 20260507230158 | 21 | 208 | 4.8 | 12.9 | 0.00 | 0.00 | 0.00 | 21 | 1012.2 |
| 20260507230058 | 21 | 215 | 4.8 | 12.9 | 0.00 | 0.00 | 0.00 | 22 | 1012.2 |
| 20260507230001 | 21 | 182 | 6.4 | 9.7 | 0.00 | 0.00 | 0.00 | 22 | 1012.2 |
| 20260507225858 | 21 | 203 | 6.4 | 9.7 | 0.00 | 0.00 | 0.00 | 22 | 1012.2 |
| 20260507225759 | 21 | 230 | 4.8 | 9.7 | 0.00 | 0.00 | 0.00 | 21 | 1012.2 |
| 20260507225658 | 21 | 181 | 0.0 | 9.7 | 0.00 | 0.00 | 0.00 | 23 | 1012.2 |
| 20260507225558 | 21 | 184 | 1.6 | 9.7 | 0.00 | 0.00 | 0.00 | 22 | 1012.3 |
| 20260507225458 | 21 | 185 | 4.8 | 9.7 | 0.00 | 0.00 | 0.00 | 21 | 1012.4 |
| 20260507225358 | 21 | 172 | 3.2 | 9.7 | 0.00 | 0.00 | 0.00 | 24 | 1012.4 |
| 20260507225258 | 21 | 263 | 4.8 | 9.7 | 0.00 | 0.00 | 0.00 | 22 | 1012.5 |
| 20260507225158 | 21 | 211 | 8.0 | 9.7 | 0.00 | 0.00 | 0.00 | 22 | 1012.5 |
| 20260507225059 | 21 | 236 | 3.2 | 9.7 | 0.00 | 0.00 | 0.00 | 22 | 1012.5 |
| 20260507224959 | 21 | 285 | 6.4 | 9.7 | 0.00 | 0.00 | 0.00 | 23 | 1012.5 |
| 20260507224758 | 21 | 219 | 1.6 | 8.0 | 0.00 | 0.00 | 0.00 | 22 | 1012.6 |
| 20260507224658 | 20 | 221 | 3.2 | 8.0 | 0.00 | 0.00 | 0.00 | 24 | 1012.6 |
| 20260507224558 | 20 | 188 | 4.8 | 8.0 | 0.00 | 0.00 | 0.00 | 24 | 1012.6 |
| 20260507224458 | 20 | 178 | 4.8 | 8.0 | 0.00 | 0.00 | 0.00 | 23 | 1012.6 |
| 20260507224400 | 20 | 242 | 4.8 | 8.0 | 0.00 | 0.00 | 0.00 | 24 | 1012.6 |
| 20260507224259 | 20 | 194 | 0.0 | 9.7 | 0.00 | 0.00 | 0.00 | 24 | 1012.6 |
| 20260507224059 | 20 | 217 | 3.2 | 9.7 | 0.00 | 0.00 | 0.00 | 24 | 1012.7 |
| 20260507223858 | 20 | 257 | 1.6 | 9.7 | 0.00 | 0.00 | 0.00 | 23 | 1012.7 |
| 20260507223757 | 20 | 264 | 1.6 | 9.7 | 0.00 | 0.00 | 0.00 | 25 | 1012.7 |
| 20260507223558 | 20 | 290 | 3.2 | 9.7 | 0.00 | 0.00 | 0.00 | 24 | 1012.7 |
| 20260507223458 | 20 | 215 | 1.6 | 9.7 | 0.00 | 0.00 | 0.00 | 24 | 1012.8 |
| 20260507223358 | 20 | 236 | 6.4 | 9.7 | 0.00 | 0.00 | 0.00 | 24 | 1012.8 |
| 20260507223258 | 20 | 269 | 3.2 | 8.0 | 0.00 | 0.00 | 0.00 | 25 | 1012.8 |
| 20260507223158 | 20 | 269 | 0.0 | 8.0 | 0.00 | 0.00 | 0.00 | 25 | 1012.8 |
| 20260507223058 | 20 | 269 | 1.6 | 8.0 | 0.00 | 0.00 | 0.00 | 24 | 1012.8 |
| 20260507222958 | 20 | 295 | 1.6 | 8.0 | 0.00 | 0.00 | 0.00 | 24 | 1012.8 |
| 20260507222858 | 20 | 248 | 6.4 | 8.0 | 0.00 | 0.00 | 0.00 | 25 | 1012.8 |
| 20260507222758 | 20 | 263 | 0.0 | 8.0 | 0.00 | 0.00 | 0.00 | 24 | 1012.9 |
| 20260507222658 | 20 | 267 | 1.6 | 8.0 | 0.00 | 0.00 | 0.00 | 23 | 1012.9 |
| 20260507222559 | 20 | 262 | 3.2 | 8.0 | 0.00 | 0.00 | 0.00 | 24 | 1012.9 |
| 20260507222458 | 20 | 321 | 0.0 | 8.0 | 0.00 | 0.00 | 0.00 | 24 | 1013.0 |
| 20260507222400 | 20 | 273 | 6.4 | 8.0 | 0.00 | 0.00 | 0.00 | 25 | 1012.9 |
| 20260507222258 | 20 | 273 | 4.8 | 6.4 | 0.00 | 0.00 | 0.00 | 22 | 1012.9 |
| 20260507222158 | 20 | 234 | 0.0 | 6.4 | 0.00 | 0.00 | 0.00 | 22 | 1012.9 |
| 20260507222058 | 20 | 237 | 0.0 | 6.4 | 0.00 | 0.00 | 0.00 | 24 | 1012.9 |
| 20260507221858 | 20 | 225 | 1.6 | 6.4 | 0.00 | 0.00 | 0.00 | 23 | 1012.9 |
| 20260507221758 | 20 | 227 | 1.6 | 6.4 | 0.00 | 0.00 | 0.00 | 23 | 1012.9 |
| 20260507221658 | 20 | 236 | 1.6 | 8.0 | 0.00 | 0.00 | 0.00 | 24 | 1012.9 |
| 20260507221558 | 20 | 227 | 0.0 | 8.0 | 0.00 | 0.00 | 0.00 | 25 | 1012.9 |
| 20260507221459 | 20 | 227 | 1.6 | 8.0 | 0.00 | 0.00 | 0.00 | 24 | 1012.9 |
| 20260507221358 | 20 | 221 | 3.2 | 8.0 | 0.00 | 0.00 | 0.00 | 23 | 1013.0 |
| 20260507221258 | 20 | 221 | 3.2 | 8.0 | 0.00 | 0.00 | 0.00 | 25 | 1012.9 |
| 20260507221159 | 20 | 256 | 3.2 | 8.0 | 0.00 | 0.00 | 0.00 | 24 | 1013.0 |
| 20260507221058 | 20 | 249 | 3.2 | 8.0 | 0.00 | 0.00 | 0.00 | 23 | 1013.0 |
| 20260507220958 | 20 | 200 | 1.6 | 8.0 | 0.00 | 0.00 | 0.00 | 22 | 1013.0 |
| 20260507220858 | 20 | 196 | 3.2 | 8.0 | 0.00 | 0.00 | 0.00 | 25 | 1013.0 |
| 20260507220658 | 20 | 180 | 1.6 | 6.4 | 0.00 | 0.00 | 0.00 | 25 | 1013.0 |
| 20260507220558 | 20 | 180 | 3.2 | 6.4 | 0.00 | 0.00 | 0.00 | 24 | 1013.0 |
| 20260507220459 | 20 | 245 | 0.0 | 6.4 | 0.00 | 0.00 | 0.00 | 23 | 1013.0 |
| 20260507220358 | 20 | 245 | 1.6 | 6.4 | 0.00 | 0.00 | 0.00 | 23 | 1013.0 |
| 20260507220158 | 20 | 251 | 1.6 | 8.0 | 0.00 | 0.00 | 0.00 | 22 | 1013.1 |
| 20260507220058 | 20 | 240 | 4.8 | 8.0 | 0.00 | 0.00 | 0.00 | 22 | 1013.1 |
| 20260507220003 | 20 | 231 | 3.2 | 8.0 | 0.00 | 0.00 | 0.00 | 24 | 1013.1 |
| 20260507215859 | 20 | 187 | 1.6 | 8.0 | 0.00 | 0.00 | 0.00 | 23 | 1013.1 |
| 20260507215801 | 20 | 177 | 1.6 | 8.0 | 0.00 | 0.00 | 0.00 | 22 | 1013.2 |
| 20260507215700 | 20 | 177 | 1.6 | 8.0 | 0.00 | 0.00 | 0.00 | 22 | 1013.2 |
| 20260507215600 | 20 | 192 | 1.6 | 8.0 | 0.00 | 0.00 | 0.00 | 23 | 1013.2 |
| 20260507215459 | 20 | 192 | 1.6 | 8.0 | 0.00 | 0.00 | 0.00 | 22 | 1013.2 |
| 20260507215400 | 20 | 202 | 4.8 | 8.0 | 0.00 | 0.00 | 0.00 | 23 | 1013.2 |
| 20260507215259 | 20 | 208 | 3.2 | 8.0 | 0.00 | 0.00 | 0.00 | 22 | 1013.2 |
| 20260507215159 | 20 | 219 | 8.0 | 8.0 | 0.00 | 0.00 | 0.00 | 22 | 1013.1 |
| 20260507215100 | 20 | 205 | 1.6 | 6.4 | 0.00 | 0.00 | 0.00 | 23 | 1013.2 |
| 20260507215001 | 20 | 230 | 1.6 | 4.8 | 0.00 | 0.00 | 0.00 | 23 | 1013.2 |
| 20260507214859 | 21 | 252 | 3.2 | 4.8 | 0.00 | 0.00 | 0.00 | 23 | 1013.2 |
| 20260507214759 | 21 | 331 | 3.2 | 4.8 | 0.00 | 0.00 | 0.00 | 22 | 1013.2 |
| 20260507214701 | 21 | 333 | 1.6 | 4.8 | 0.00 | 0.00 | 0.00 | 23 | 1013.2 |
| 20260507214600 | 21 | 285 | 0.0 | 4.8 | 0.00 | 0.00 | 0.00 | 24 | 1013.2 |
| 20260507214500 | 21 | 281 | 1.6 | 4.8 | 0.00 | 0.00 | 0.00 | 24 | 1013.2 |
| 20260507214359 | 21 | 281 | 1.6 | 4.8 | 0.00 | 0.00 | 0.00 | 22 | 1013.2 |
| 20260507214259 | 21 | 247 | 3.2 | 4.8 | 0.00 | 0.00 | 0.00 | 22 | 1013.2 |
| 20260507214159 | 21 | 234 | 0.0 | 4.8 | 0.00 | 0.00 | 0.00 | 22 | 1013.2 |
| 20260507214100 | 21 | 234 | 0.0 | 4.8 | 0.00 | 0.00 | 0.00 | 22 | 1013.3 |